GFSMW_sfc_temp_075.txt.gz
Temp
74 76 68 68 68 67 63 64 63 63 63 63 61 60 60 61 61 63 65 63 63 64 62 61 61 62 64 67 65 66 65 66 68 65 64 65 66 66 67 67 68 69 69
72 69 65 66 66 64 63 64 64 63 64 66 63 62 61 61 62 63 62 65 63 62 61 60 61 62 66 65 66 65 65 66 66 65 64 58 61 64 64 64 65 66 69
70 67 63 65 66 63 63 64 65 65 65 65 65 61 61 61 60 59 61 61 61 60 60 60 61 63 65 64 64 65 65 63 64 67 67 59 60 61 63 62 64 64 64
69 70 64 63 65 65 65 65 65 65 65 64 62 60 60 58 60 60 60 61 62 61 60 60 61 63 65 64 64 66 64 62 60 64 67 68 65 61 56 60 63 63 63
68 66 63 66 67 66 64 63 64 64 63 64 63 62 62 65 62 61 60 60 61 61 61 60 60 60 63 64 63 63 65 67 65 65 64 65 65 66 63 58 58 61 64
67 67 65 66 66 66 63 60 61 62 63 63 64 62 61 61 61 59 61 60 60 60 60 60 59 59 60 59 60 61 65 65 66 66 66 65 64 63 63 60 60 61 63
65 63 63 63 64 63 60 59 61 60 61 62 62 61 61 61 60 60 60 59 58 58 59 60 59 60 59 60 60 59 60 62 63 65 64 64 65 65 66 63 61 63 64
66 63 64 63 63 62 59 61 60 59 60 60 61 61 61 60 61 60 60 61 60 60 59 60 60 60 60 59 59 59 58 59 60 62 64 65 64 65 67 65 63 60 60
64 64 63 63 63 62 59 60 60 59 59 59 61 61 60 60 61 61 63 61 61 61 60 60 59 60 60 60 59 58 58 58 58 59 61 60 65 63 64 65 67 65 60
59 60 61 61 63 61 60 60 61 63 61 60 62 63 63 62 61 61 60 60 60 61 61 62 60 58 59 59 58 59 59 58 58 58 57 57 60 61 61 59 61 57 63
55 58 60 60 60 60 59 59 61 63 63 61 61 62 62 63 63 61 60 60 60 59 59 60 59 59 60 60 58 58 58 58 60 60 59 59 59 58 57 57 57 57 56
49 54 57 57 57 57 58 58 59 61 62 62 61 61 61 61 61 61 63 63 61 60 59 60 60 61 61 63 61 60 58 57 57 58 58 57 58 57 59 58 57 60 63
46 47 48 49 52 54 54 54 55 57 59 60 60 60 60 60 60 61 62 63 63 63 62 61 60 61 63 64 61 62 63 62 61 60 59 59 59 58 59 60 61 62 61
43 43 44 45 46 47 48 49 50 52 57 59 58 56 58 59 59 60 61 62 62 63 63 64 64 64 64 62 62 62 62 63 64 64 63 63 64 64 64 64 64 63 60
41 41 40 42 43 44 46 47 48 49 51 51 50 49 50 51 53 55 58 60 60 62 63 63 63 64 63 62 62 61 60 61 62 64 65 66 63 56 60 66 65 65 63
40 40 40 40 41 42 43 45 45 44 46 44 44 46 47 48 48 49 50 50 50 51 55 57 57 57 53 37 39 46 60 61 61 62 64 65 54 54 47 47 49 59 62
40 39 38 39 40 41 42 42 43 44 42 40 42 43 45 45 45 46 46 46 47 48 48 47 47 43 38 36 37 37 46 53 57 58 59 61 63 55 63 51 44 45 45
37 36 37 39 40 41 41 41 41 40 40 40 40 41 43 43 44 45 45 45 46 44 41 40 39 40 38 36 36 36 45 48 51 54 56 56 56 57 54 56 55 54 53
34 34 36 36 38 40 40 38 38 39 37 36 37 39 40 40 40 40 41 42 42 41 38 37 36 36 35 35 35 37 43 46 46 38 36 35 37 37 38 42 49 51 36
35 35 36 35 36 37 38 37 36 35 33 34 35 37 38 37 37 37 38 39 39 37 36 35 35 34 35 34 34 37 41 39 37 34 33 33 34 34 35 37 38 34 31
34 35 34 33 34 35 36 34 34 32 34 34 34 35 36 35 37 37 37 37 36 35 34 33 34 33 33 33 33 33 33 32 30 29 29 30 32 32 32 32 30 28 28
33 34 32 31 33 35 34 32 30 33 34 34 33 33 33 33 34 34 34 35 35 34 33 32 31 32 32 31 31 31 31 30 28 26 27 27 29 30 29 28 29 28 25
32 33 32 31 31 32 33 30 31 32 33 32 31 32 33 32 33 32 31 31 31 31 30 29 29 29 31 32 29 30 29 29 29 29 27 27 27 27 27 27 26 25 24
29 31 30 29 28 30 31 31 32 33 32 31 30 30 30 30 31 32 31 30 29 29 29 29 28 29 29 30 32 31 31 29 29 28 27 26 26 24 24 26 26 26 25
27 28 27 27 26 28 28 29 32 32 30 30 29 29 29 28 27 27 28 29 28 29 28 28 28 28 26 27 29 29 28 27 26 27 27 25 25 24 24 23 22 23 24
25 25 25 24 25 25 25 27 29 31 30 28 27 27 27 28 28 27 25 27 28 28 29 29 29 28 28 28 27 27 26 25 25 24 22 21 21 21 21 21 20 21 20

GFSMW_sfc_temp_078.txt.gz
Temp
86 88 87 83 82 81 79 76 68 69 68 66 63 63 63 64 63 65 66 65 65 63 64 63 62 63 61 61 65 73 72 72 74 72 69 71 72 72 73 74 74 76 76
83 85 85 81 79 78 78 75 72 69 69 69 67 65 63 64 65 65 65 66 69 65 63 62 61 61 61 61 67 70 71 72 73 70 69 59 63 67 71 74 74 74 76
81 84 82 79 78 77 76 76 74 74 72 72 71 71 65 65 63 63 64 65 69 64 63 62 61 61 62 61 67 71 71 68 72 74 72 63 63 65 70 69 72 71 70
82 84 84 78 77 77 77 77 76 72 74 75 71 69 65 60 66 66 61 66 65 61 61 62 61 61 63 63 67 72 71 71 68 71 75 76 75 66 62 70 70 71 69
83 83 84 82 80 79 76 76 75 72 75 74 72 71 65 64 69 65 61 62 62 61 60 60 60 61 63 66 69 69 69 71 71 69 70 71 72 73 71 65 65 69 69
79 82 83 80 79 78 75 73 72 70 73 73 71 67 65 65 67 63 63 60 60 60 60 60 60 61 62 67 67 68 69 70 70 69 67 70 69 69 70 68 69 67 69
75 79 77 76 76 74 68 68 72 67 69 72 71 70 70 67 65 67 63 61 60 59 59 59 60 59 60 64 67 65 66 67 68 69 71 70 71 74 72 70 70 68 72
74 77 76 75 75 73 63 65 68 65 67 70 71 68 68 65 65 66 68 66 63 63 64 60 59 60 59 60 61 61 61 64 64 67 68 70 69 71 72 70 68 65 68
70 74 74 75 74 72 61 63 65 65 66 67 70 69 67 67 65 65 65 64 65 65 62 60 60 60 60 59 59 58 59 59 61 61 63 65 70 71 71 71 72 67 59
64 70 71 70 73 67 63 64 67 65 65 66 65 68 68 68 66 65 65 69 67 65 64 61 59 59 60 61 60 59 60 58 58 60 59 60 62 68 69 70 67 68 64
50 64 67 68 66 63 62 61 66 65 63 63 63 67 68 67 65 65 65 65 64 64 62 64 63 61 59 59 59 59 59 58 59 59 58 59 60 58 59 60 61 62 61
48 48 57 60 60 60 60 61 66 67 67 63 63 65 66 67 67 65 64 64 63 63 64 64 63 61 59 59 59 58 58 57 57 59 59 59 60 58 59 58 57 57 59
44 45 47 47 47 52 56 57 61 62 61 63 63 62 61 61 63 66 68 67 65 63 63 64 62 62 61 61 61 63 63 63 62 61 60 60 60 59 60 59 59 60 60
41 42 42 43 44 46 47 49 50 55 57 59 57 55 58 60 61 63 65 66 67 66 64 64 64 64 65 64 65 66 66 64 63 65 64 64 65 65 66 66 65 65 63
39 39 39 40 41 43 44 45 47 49 50 50 50 48 49 51 52 52 53 57 61 64 68 67 67 66 57 45 47 63 64 62 64 65 65 66 64 56 59 67 67 65 65
38 38 39 39 40 41 43 44 43 45 47 46 45 48 48 47 47 48 48 49 50 50 50 48 47 45 43 37 38 41 56 59 61 61 62 63 55 55 47 48 48 56 62
38 38 37 38 39 40 41 43 44 46 45 45 45 47 48 47 47 48 47 47 46 45 43 43 42 38 37 36 36 36 44 49 51 53 51 54 57 50 54 49 44 45 43
35 37 38 40 40 41 42 43 44 45 44 46 45 45 45 47 49 49 48 46 43 41 39 39 39 38 36 35 35 35 46 49 40 37 37 39 40 39 38 43 47 51 38
35 36 41 38 40 40 42 41 42 43 41 39 40 42 44 44 46 45 44 45 44 41 39 39 38 39 36 35 35 43 49 40 37 36 35 35 35 34 35 41 42 37 31
33 34 38 40 39 38 41 40 39 37 36 39 40 42 41 43 41 42 42 43 43 41 41 40 40 36 39 33 34 40 40 35 34 32 33 32 33 33 33 36 38 29 27
33 34 36 37 39 41 41 37 37 37 37 39 38 38 41 40 40 41 42 41 40 40 39 38 38 37 34 34 33 34 37 33 31 30 30 31 31 32 32 31 29 27 27
34 38 38 37 39 41 41 38 35 35 38 39 38 36 37 39 40 39 39 40 39 38 38 37 35 35 34 32 31 31 32 35 33 31 31 30 31 31 31 31 30 29 29
37 39 37 35 37 39 40 36 36 38 38 36 36 37 37 36 38 38 39 39 39 38 37 36 34 33 35 35 32 31 30 30 31 30 30 30 31 31 30 30 31 32 32
34 38 36 34 33 35 36 37 38 39 38 36 35 34 35 35 36 36 36 35 34 34 34 33 32 32 31 31 33 33 34 31 32 31 31 30 30 30 30 30 30 30 29
29 33 32 32 32 34 34 37 38 38 36 36 35 34 34 32 30 30 31 30 29 31 31 30 30 29 27 27 29 29 30 30 30 31 31 30 30 29 29 28 27 28 29
29 29 30 30 30 31 31 33 36 38 36 34 34 33 34 34 34 31 27 27 27 28 28 28 29 28 27 27 27 27 27 28 30 30 28 27 27 27 27 27 27 27 26

GFSMW_sfc_temp_081.txt.gz
Temp
87 91 91 91 90 89 86 82 78 78 77 75 71 70 69 70 68 68 67 66 68 69 68 64 63 63 63 62 63 63 68 69 72 69 66 67 69 71 77 77 78 78 78
85 87 90 89 86 86 84 82 78 77 77 77 75 73 70 72 72 71 69 67 67 67 63 64 62 64 62 61 61 62 64 70 72 66 68 57 63 68 69 73 76 75 77
82 85 87 87 84 84 82 82 79 77 76 77 75 73 67 70 67 69 69 69 70 70 67 63 62 62 61 60 62 62 65 66 69 72 69 61 61 65 68 69 71 74 75
83 85 87 86 83 83 83 82 80 78 77 76 73 69 68 66 71 71 70 70 70 69 66 62 62 61 61 60 62 63 64 67 67 71 76 73 74 66 61 69 69 73 73
82 84 86 89 87 84 82 81 80 79 78 77 77 74 73 72 73 72 67 65 66 63 62 62 61 61 61 61 61 62 64 68 68 71 72 70 71 67 67 63 65 69 72
83 86 88 90 87 85 82 79 79 78 78 78 77 75 73 71 71 69 65 62 62 61 60 60 61 61 61 60 61 63 67 69 70 71 70 69 67 67 69 67 67 67 70
79 82 85 87 86 82 79 78 79 75 78 77 76 75 74 71 67 68 66 61 59 59 59 59 59 59 61 62 63 63 66 68 68 68 68 69 70 72 67 66 68 63 70
75 80 84 85 83 81 78 78 78 73 77 76 75 75 75 73 73 72 70 66 62 61 60 59 59 59 60 61 62 66 67 67 67 67 68 68 66 66 70 64 64 66 68
66 74 82 81 82 79 71 71 76 68 73 76 76 74 72 71 70 70 69 67 67 65 63 60 58 58 59 59 60 60 64 66 65 65 66 66 64 64 67 70 69 64 60
55 62 78 79 80 73 68 66 71 66 70 75 75 71 71 71 70 69 68 67 67 67 65 62 60 58 58 59 58 59 59 59 59 60 59 60 61 62 62 64 67 66 62
47 53 58 74 73 66 64 64 65 66 66 67 71 68 67 70 69 68 69 68 67 66 64 64 61 59 58 58 58 59 58 57 58 59 59 60 61 60 61 60 61 63 64
44 46 49 52 62 61 61 62 65 64 65 67 67 67 67 67 68 67 69 69 67 66 64 63 64 61 60 59 58 57 58 58 58 57 57 58 60 60 62 60 59 60 60
42 43 44 45 47 49 53 55 62 63 63 64 64 64 65 66 66 66 66 66 65 63 63 63 63 64 63 61 60 59 59 60 58 59 58 59 59 59 59 60 59 58 60
40 40 40 41 43 45 46 47 48 53 58 59 57 57 60 65 66 67 67 64 65 63 62 63 63 63 62 59 59 60 60 60 61 63 63 64 64 62 60 59 61 64 63
37 37 38 39 41 42 42 44 45 46 50 50 49 48 49 51 51 51 56 59 56 55 55 59 51 48 45 42 44 53 58 61 62 66 63 63 61 53 56 63 64 64 62
37 36 37 38 38 40 41 42 42 44 46 46 46 47 47 48 47 48 49 47 46 47 47 43 42 41 40 36 37 41 56 60 57 55 52 54 44 44 41 41 42 45 55
37 36 36 36 37 38 40 40 41 45 44 44 45 47 48 47 47 47 45 43 41 41 41 40 39 36 36 36 37 37 48 46 41 40 41 44 43 39 40 42 42 35 35
34 35 35 37 38 39 39 41 40 40 42 44 44 46 48 48 47 46 43 42 40 39 39 39 38 36 35 35 36 37 42 38 37 36 37 37 36 35 35 40 43 33 32
34 32 36 37 38 39 40 39 39 40 40 39 41 45 46 46 46 44 44 43 42 40 39 39 39 37 35 35 37 42 41 37 36 35 34 36 36 34 36 44 37 31 29
33 33 33 33 34 36 40 38 37 37 37 38 40 42 42 43 42 42 42 44 44 42 42 40 39 37 35 34 36 40 38 35 33 34 33 32 33 33 34 36 33 28 26
32 33 34 34 35 36 34 33 35 35 37 39 40 40 41 40 41 43 43 43 42 42 40 38 38 37 35 33 34 36 39 36 34 33 31 32 32 33 32 32 31 28 29
34 35 33 37 41 44 42 39 35 34 35 37 37 37 38 40 42 41 40 40 42 40 39 36 36 36 35 33 32 33 34 35 33 30 31 31 32 32 32 32 32 33 33
37 41 40 39 41 44 43 40 40 41 41 40 37 36 36 36 37 36 37 38 39 37 35 34 33 33 34 34 33 32 31 32 31 31 31 32 32 32 31 31 32 31 32
36 40 39 37 36 40 41 41 42 43 40 37 37 37 37 37 38 36 33 31 34 34 33 33 32 31 30 31 33 33 33 32 32 32 32 32 31 32 31 31 31 31 31
31 37 36 35 35 37 38 41 41 41 38 37 36 35 34 32 29 28 30 29 29 29 30 30 29 28 26 26 29 30 30 31 31 32 32 31 31 30 31 30 30 30 30
29 29 30 31 31 31 31 33 37 40 38 35 35 35 36 35 33 30 26 28 28 28 28 28 29 27 27 28 28 29 30 31 32 31 29 28 29 28 29 28 28 28 28

GFSMW_sfc_temp_087.txt.gz
Temp
73 74 75 79 75 75 73 72 70 68 67 65 62 62 62 64 62 62 63 64 64 64 62 62 64 63 62 62 62 62 61 61 61 59 60 62 63 62 63 64 64 63 64
73 75 74 73 73 71 72 71 70 68 66 66 65 61 60 64 61 61 62 66 63 63 62 63 63 62 62 62 62 61 60 60 61 59 62 55 59 61 60 64 65 62 64
68 75 73 71 69 72 71 69 69 69 66 65 65 63 61 60 59 60 61 64 65 63 63 63 63 63 63 62 61 62 61 59 60 61 62 55 53 57 58 59 62 63 63
72 71 72 71 68 71 72 70 69 69 67 66 64 63 62 59 59 61 63 61 62 63 63 63 63 63 63 62 62 62 61 60 59 60 66 63 60 56 52 56 59 59 63
62 67 70 73 71 74 71 70 69 69 69 67 65 62 59 59 59 60 60 61 62 62 62 62 62 62 62 62 62 61 60 61 60 60 61 60 60 59 54 51 54 56 59
57 59 60 61 64 72 72 70 68 69 68 67 65 63 60 60 59 59 59 59 60 61 61 62 62 62 62 61 62 62 61 60 60 60 61 61 58 58 56 52 53 58 55
53 53 53 53 56 58 70 69 68 67 68 65 65 64 62 60 59 60 59 59 58 58 59 60 60 61 61 61 62 61 61 60 60 60 60 61 61 61 60 57 56 55 55
50 50 50 50 52 59 68 69 66 66 66 65 65 66 63 62 61 62 60 59 60 60 59 59 60 60 61 60 61 60 60 61 59 59 60 60 61 60 60 58 56 53 53
46 47 49 50 51 63 67 66 67 67 66 66 66 65 64 63 60 60 60 60 60 60 59 59 59 60 59 59 60 60 60 60 59 58 59 60 60 59 59 59 57 53 49
44 46 46 47 50 52 59 60 66 66 66 67 66 65 64 62 62 63 61 59 60 61 59 58 58 58 59 59 59 59 59 60 59 58 58 58 58 58 58 57 56 55 53
42 43 43 45 47 49 51 53 60 62 65 64 64 64 64 64 64 63 62 61 60 60 59 59 58 57 57 58 59 59 59 58 58 57 57 57 58 56 56 56 55 56 55
41 41 41 42 43 45 46 49 52 60 62 63 62 61 63 63 62 62 62 62 61 60 59 59 58 58 57 57 57 57 58 58 57 56 56 56 57 56 56 56 55 55 55
40 40 39 39 39 42 43 44 47 54 60 61 60 60 60 61 60 61 61 61 60 59 59 59 59 58 57 57 57 57 57 57 57 56 56 55 55 55 55 55 55 56 56
38 38 37 37 38 39 40 42 43 47 53 54 54 53 55 55 55 56 57 58 59 55 52 50 49 49 49 51 55 57 56 56 56 57 56 56 56 56 56 56 56 56 56
36 36 36 36 37 37 38 39 42 44 47 49 49 49 51 51 49 48 48 48 48 48 48 46 44 43 43 42 45 52 55 56 54 53 47 43 43 40 41 54 52 53 55
35 35 36 35 35 35 36 38 39 41 45 45 46 47 46 45 44 44 43 43 42 41 41 39 40 40 41 38 39 46 45 45 45 44 43 41 41 38 37 37 35 36 42
33 33 33 34 34 34 35 35 37 40 40 43 44 44 43 42 41 41 41 39 38 38 37 37 38 38 39 38 38 39 39 38 37 37 39 38 38 39 37 35 34 33 33
32 32 33 33 34 35 35 36 37 37 37 39 41 42 42 41 41 39 38 37 37 36 35 35 36 36 37 37 36 36 36 34 34 34 34 35 36 37 37 34 32 31 31
33 32 33 34 33 33 34 35 35 35 35 34 36 40 41 40 39 37 36 36 35 34 33 34 34 35 35 37 36 36 34 33 32 33 33 34 34 36 37 33 30 28 28
32 33 33 32 32 32 33 33 33 33 32 33 33 35 37 38 37 36 35 34 33 32 32 31 32 34 33 35 35 35 33 30 30 31 32 34 33 34 33 31 30 28 27
33 33 34 32 32 33 33 31 31 31 32 33 33 33 34 33 35 36 35 34 33 32 31 30 31 32 32 33 35 34 32 30 29 29 29 32 34 34 34 33 30 28 29
33 34 33 33 35 35 35 31 30 32 32 32 32 32 32 32 32 33 33 33 33 31 31 30 29 30 31 32 33 33 33 32 29 28 29 31 33 34 33 32 33 32 28
32 33 32 33 34 36 35 32 32 32 31 29 28 28 29 29 29 28 30 32 31 30 28 28 27 27 28 31 33 33 32 32 29 30 32 32 32 31 30 32 31 28 26
30 30 30 29 29 32 33 35 35 34 31 28 28 27 27 26 27 28 28 27 28 27 27 26 24 25 26 27 29 30 30 30 30 29 29 29 28 26 25 25 24 23 22
27 28 27 27 27 29 30 32 37 36 32 30 29 27 27 26 26 26 26 26 27 27 24 24 24 23 23 27 31 30 28 29 28 27 26 24 23 22 21 21 20 20 21
25 25 25 25 26 27 28 30 32 33 32 30 30 29 27 26 25 24 24 29 29 30 30 28 26 25 30 32 32 33 33 32 30 24 21 19 19 19 19 18 17 18 17

GFSMW_sfc_temp_090.txt.gz
Temp
71 69 72 71 74 74 68 71 69 67 67 65 63 63 63 63 62 63 63 64 64 64 64 62 63 64 62 62 61 61 60 60 62 61 58 58 62 63 62 61 61 60 61
71 72 70 68 67 67 70 70 68 66 68 66 67 64 63 62 64 61 61 62 62 63 63 63 62 63 61 62 61 61 60 60 61 58 57 53 55 58 61 60 60 59 61
67 71 73 66 66 63 67 69 68 67 68 66 62 61 59 59 61 61 59 61 62 62 62 63 63 63 62 61 62 61 61 59 59 60 57 53 52 56 56 56 60 57 58
55 63 61 61 60 62 70 70 69 68 66 64 63 62 62 60 62 63 59 60 61 61 62 63 63 63 63 62 61 61 61 62 58 58 60 59 58 55 50 55 57 60 59
52 52 52 54 56 63 69 70 68 66 65 65 63 62 60 59 59 59 59 59 59 60 62 63 63 62 62 62 62 61 61 61 60 59 58 58 58 57 56 52 53 55 61
50 51 53 53 52 54 65 68 67 65 65 65 63 62 60 58 59 59 58 60 60 60 61 62 62 62 62 62 62 62 61 61 61 60 59 59 58 57 55 53 53 56 55
47 48 50 50 50 52 55 66 66 63 64 63 63 62 61 60 60 59 58 59 60 60 61 61 61 61 62 62 62 61 61 61 60 59 59 60 60 65 59 56 54 56 55
46 47 48 48 50 52 57 65 64 62 63 62 62 62 61 61 60 59 60 59 59 59 59 60 61 61 61 61 62 61 61 60 60 59 59 59 59 60 60 57 54 52 53
44 45 46 46 48 49 53 60 64 64 62 63 62 61 61 60 59 59 59 59 60 60 59 58 59 59 60 60 60 60 60 60 60 59 59 60 59 59 59 59 57 54 51
43 43 43 44 46 48 50 55 60 62 63 63 63 62 62 61 61 59 59 59 59 60 59 59 58 59 59 59 59 59 60 59 59 59 58 57 57 58 57 58 57 56 54
40 41 41 43 44 46 47 50 53 60 60 61 61 61 61 62 62 60 59 60 59 59 59 59 58 57 58 58 58 58 58 59 58 58 58 57 57 57 56 56 55 55 54
39 40 40 40 41 41 44 46 48 51 59 60 61 61 62 61 61 60 61 60 59 59 59 59 58 58 57 57 58 57 58 58 57 57 57 56 57 56 56 55 54 54 55
37 38 38 38 38 39 41 43 45 47 55 59 59 60 60 60 60 60 60 60 60 59 59 58 58 57 57 57 57 58 58 57 59 58 57 56 56 55 54 54 54 54 55
36 36 36 36 37 39 38 40 43 46 49 54 56 55 54 55 55 55 55 56 55 53 52 51 51 51 51 54 56 57 57 57 57 57 57 57 56 56 55 55 54 54 54
34 34 34 35 36 36 38 39 40 43 46 48 49 49 49 49 49 48 48 47 46 47 47 46 45 45 45 44 48 54 56 55 48 46 45 42 42 40 43 54 52 54 53
33 33 33 33 33 34 36 38 38 39 44 44 43 45 46 45 43 43 42 41 41 41 41 40 41 41 41 39 40 46 46 46 44 41 41 41 38 37 36 36 35 36 44
32 32 32 32 33 33 35 35 37 39 39 42 43 42 41 41 41 40 39 38 37 37 37 38 38 37 37 37 38 38 39 38 38 39 39 39 38 37 36 35 34 34 34
31 32 32 32 33 33 34 36 37 37 37 37 39 40 40 38 38 38 36 35 35 35 35 36 37 36 36 36 36 36 36 34 34 34 36 37 37 36 35 33 32 31 31
33 32 32 33 32 32 33 33 34 35 35 34 35 37 36 35 35 34 33 34 33 33 33 34 35 34 34 35 35 35 33 32 32 33 34 35 34 35 36 32 30 29 30
32 32 32 32 31 31 33 32 32 32 32 32 33 34 35 34 32 32 32 32 32 32 32 31 32 34 33 34 34 34 32 30 31 32 32 33 32 34 34 32 31 28 28
32 33 34 32 32 33 32 30 31 30 31 32 32 32 33 33 33 33 32 32 31 30 30 30 30 31 32 32 33 33 32 30 30 30 30 32 34 34 34 33 30 28 29
32 32 30 30 33 34 33 31 29 30 29 29 29 29 29 30 31 32 32 32 30 29 28 28 29 30 30 32 32 32 32 32 29 28 30 32 34 34 33 32 32 31 25
30 30 29 30 30 32 33 31 30 30 29 28 27 27 27 27 28 28 29 29 29 27 27 27 27 27 30 30 32 32 31 30 28 29 30 31 30 29 28 30 29 26 24
27 28 28 27 27 30 31 33 33 30 29 27 26 27 26 26 27 27 28 27 26 26 26 25 25 26 27 28 29 30 30 30 29 27 26 25 25 23 23 23 23 22 21
24 25 25 25 25 28 29 30 33 32 28 27 27 26 26 26 25 26 26 26 26 26 24 24 25 25 25 28 30 29 27 27 27 25 24 22 21 19 19 19 19 20 20
23 22 23 23 24 25 26 28 30 31 30 29 28 26 25 25 25 24 24 30 30 30 30 29 27 28 31 32 32 32 31 30 28 22 19 17 17 16 16 16 16 17 18

GFSMW_sfc_temp_093.txt.gz
Temp
62 64 66 69 69 64 66 69 68 68 68 65 65 64 64 64 64 64 65 64 65 64 64 64 63 64 63 63 63 62 61 59 61 60 58 57 59 60 60 62 61 59 60
54 56 57 64 66 68 64 68 69 67 68 67 66 65 66 65 64 64 64 65 64 63 64 63 62 64 63 63 61 61 60 60 61 59 56 52 54 57 59 59 60 59 60
50 52 54 53 54 57 61 66 68 67 68 68 63 60 61 61 61 62 63 63 62 62 63 62 63 63 62 61 61 61 61 60 60 58 57 52 51 54 56 57 58 57 57
51 51 51 52 52 52 55 67 68 67 68 66 63 62 63 62 64 64 64 61 61 61 62 61 63 63 62 61 61 62 61 60 59 59 59 58 57 53 51 54 56 57 58
49 48 52 53 52 53 52 64 68 67 67 65 65 63 63 62 59 60 61 60 60 61 62 63 62 62 62 62 61 61 61 60 60 60 57 56 57 55 54 51 52 54 58
47 49 51 52 51 51 53 61 64 65 66 65 64 64 61 59 59 59 60 58 59 61 62 62 62 62 61 61 61 61 61 61 61 60 59 58 56 54 53 52 53 54 54
46 47 46 46 48 49 51 59 65 65 64 64 62 62 60 60 59 59 59 58 59 60 60 62 61 61 62 62 62 61 61 61 60 60 59 60 59 59 57 55 53 52 53
44 45 45 44 45 48 49 53 64 63 63 63 62 61 60 60 60 59 59 60 61 61 61 61 62 61 61 61 61 61 61 61 60 59 58 58 58 59 59 57 54 51 52
42 43 43 44 44 45 47 49 61 62 63 62 61 60 60 59 59 59 60 61 61 60 60 60 60 60 60 60 60 60 60 60 60 60 58 59 59 59 59 60 58 55 50
41 41 41 42 44 44 46 48 53 61 62 61 60 60 60 59 59 59 57 58 57 58 58 58 58 58 59 59 59 59 60 60 60 59 58 58 58 57 59 58 59 57 54
38 39 40 41 42 44 44 46 49 59 60 60 60 59 59 59 58 58 57 57 57 58 58 58 58 58 58 59 58 58 59 59 59 59 59 58 58 56 55 56 56 55 55
37 38 39 39 39 41 43 44 45 49 55 60 59 59 59 59 59 57 57 58 57 57 57 58 58 58 57 58 57 57 57 58 57 58 58 58 58 56 55 55 54 54 54
36 36 37 36 37 38 40 41 42 45 49 57 59 58 59 60 60 60 59 59 57 58 58 58 57 57 57 57 57 57 57 58 58 58 57 57 58 56 55 55 54 54 54
35 35 34 34 35 36 37 39 40 43 46 49 53 56 58 58 57 56 57 56 55 53 52 52 51 51 52 55 57 57 57 57 57 58 58 57 57 56 55 55 54 54 53
33 33 33 33 34 34 36 38 40 41 44 44 44 45 49 51 50 49 48 48 47 47 47 46 45 44 45 44 45 55 56 51 48 47 45 44 44 45 51 55 54 54 53
32 32 33 33 33 33 34 36 38 39 42 41 40 41 42 43 42 42 42 42 41 41 42 40 39 39 40 38 40 47 48 46 44 41 40 39 39 37 37 37 35 38 51
31 32 32 32 33 33 33 34 36 38 39 39 38 38 38 38 38 38 38 37 37 39 38 37 37 35 36 37 37 38 40 39 39 39 39 38 37 36 35 35 34 34 34
31 31 31 32 32 33 33 34 35 35 35 35 36 37 36 34 35 35 35 35 35 35 36 35 35 34 35 35 36 36 36 35 34 35 37 36 35 35 35 34 32 31 31
32 31 32 32 32 32 33 33 32 33 33 32 33 33 35 33 34 32 32 33 33 33 33 34 34 33 33 35 35 35 34 32 32 34 35 35 34 35 36 33 31 30 30
32 32 32 32 32 32 32 32 30 30 29 31 31 33 33 33 32 32 32 32 32 31 32 31 32 33 32 34 34 34 33 31 31 32 32 33 33 34 34 32 31 28 27
31 31 31 30 31 33 31 28 27 26 28 30 30 31 31 32 32 32 32 31 31 30 30 30 30 31 32 32 34 34 32 31 31 31 31 32 33 33 33 32 29 27 27
28 28 28 29 31 32 31 28 27 28 28 28 28 28 29 30 30 30 30 30 29 28 28 28 29 30 30 32 32 32 32 31 30 28 30 31 33 32 32 30 30 28 25
26 28 27 28 29 31 31 27 28 28 28 27 26 27 27 27 28 28 28 27 28 27 27 27 27 27 29 30 31 31 30 30 27 27 28 28 28 28 28 29 28 24 22
23 25 26 25 26 28 30 30 30 30 28 26 26 26 26 26 27 27 27 26 26 25 25 26 26 27 28 28 29 29 27 27 25 24 24 24 24 22 22 22 23 21 20
22 22 22 23 23 26 27 29 32 30 28 27 26 25 25 25 26 26 26 26 26 26 25 25 26 26 26 28 29 28 26 24 24 23 22 21 20 19 19 19 19 20 19
20 20 20 21 22 23 24 26 29 30 30 28 27 25 25 24 24 25 26 29 29 29 29 30 29 30 31 31 30 29 28 27 25 21 18 17 17 16 17 16 16 17 16

GFSMW_sfc_temp_096.txt.gz
Temp
54 55 56 56 56 54 57 62 63 66 68 68 66 65 65 66 66 66 66 66 65 65 64 63 62 63 62 62 62 62 61 60 62 60 58 58 60 61 61 61 60 60 60
52 54 54 54 53 52 53 55 63 66 67 69 68 66 66 66 66 66 66 66 65 65 64 63 63 62 62 62 62 62 60 61 62 59 57 53 55 58 60 60 60 59 60
49 50 52 52 53 51 51 53 53 66 67 68 68 62 63 62 61 63 63 64 65 64 64 64 63 62 63 62 62 61 61 59 61 60 57 52 52 54 56 58 59 58 59
49 49 49 50 51 52 51 52 55 58 67 68 67 65 65 63 65 63 63 63 64 63 64 64 63 63 63 62 62 62 61 60 59 59 59 58 57 54 51 55 56 57 58
46 45 48 49 51 52 50 53 55 58 67 67 67 64 64 64 63 64 64 63 62 63 63 62 63 63 63 63 61 61 61 61 60 60 58 57 57 56 54 52 52 55 56
47 47 49 49 48 49 49 51 53 60 65 68 66 63 64 59 61 62 61 62 61 62 62 62 62 63 62 61 61 61 61 60 61 60 60 60 56 55 54 53 54 55 54
44 45 45 44 45 46 46 48 51 56 65 66 65 63 62 60 61 62 61 61 61 61 61 61 61 61 62 62 61 61 61 61 60 60 60 60 59 59 59 56 54 53 53
43 43 42 42 43 44 45 46 48 51 63 64 64 63 59 59 59 60 61 61 61 61 61 61 61 62 60 61 61 61 61 60 60 59 59 59 59 59 59 56 54 50 52
40 41 41 41 41 42 44 45 47 50 62 62 62 60 59 59 59 59 59 61 62 61 61 61 61 61 61 61 61 60 60 60 60 59 59 59 59 59 58 58 58 56 50
38 39 40 40 41 42 43 45 46 49 61 61 61 60 60 59 59 59 59 60 61 61 61 60 60 60 60 60 60 60 60 60 60 60 58 58 58 59 58 57 57 56 54
36 37 37 39 40 41 42 42 45 47 52 60 60 59 58 58 59 59 59 59 59 59 59 59 59 58 58 58 58 59 59 59 59 59 58 58 58 57 57 57 57 56 55
36 37 37 38 37 38 39 40 42 45 49 52 58 58 58 59 58 58 58 57 57 56 57 58 57 58 57 58 57 57 58 58 58 58 59 58 58 57 57 56 56 55 55
35 35 35 35 35 36 37 39 41 43 46 50 56 58 58 58 58 58 57 57 56 55 56 56 57 58 58 57 57 57 57 57 58 59 58 58 58 56 56 57 56 55 54
34 34 34 34 35 36 36 37 38 41 43 44 45 47 48 58 59 59 58 58 58 56 54 53 51 51 51 53 55 57 57 57 57 57 58 58 58 57 55 56 56 55 54
32 33 32 33 33 33 34 36 37 39 41 41 40 40 42 43 47 52 49 49 48 48 48 47 45 45 44 43 44 52 56 54 50 46 45 46 54 51 53 56 55 54 53
31 32 33 32 32 32 33 35 35 37 38 39 38 39 38 39 39 41 42 42 42 41 41 40 39 39 39 38 39 47 48 46 45 42 41 40 40 38 38 38 37 41 53
30 31 31 31 32 32 33 32 34 36 36 35 37 38 38 36 35 35 38 38 38 38 37 36 36 35 36 37 38 38 40 39 39 39 38 38 37 37 36 35 35 34 34
30 31 31 32 32 32 33 33 32 33 34 34 34 35 36 35 34 32 33 34 35 35 34 34 35 34 35 36 36 36 36 36 36 36 36 35 34 35 35 34 32 31 31
31 31 32 32 32 31 31 32 30 31 31 31 31 32 33 33 32 32 32 32 32 32 32 33 33 33 34 35 36 35 34 33 33 34 34 34 34 35 37 33 30 29 28
30 29 30 31 31 31 30 29 28 28 27 29 30 31 32 32 31 31 31 31 32 31 31 31 32 33 33 35 35 35 34 32 31 32 32 33 32 34 35 32 31 27 26
29 29 30 29 29 30 30 27 26 25 27 29 29 29 30 31 30 30 30 30 30 30 30 30 30 31 32 33 34 35 32 31 31 30 30 32 33 33 32 31 28 26 26
27 27 28 28 30 30 29 26 25 26 27 27 27 27 28 28 29 29 29 29 29 28 28 28 28 29 31 32 32 32 32 32 29 28 30 30 32 31 30 29 29 28 26
24 26 26 26 27 29 30 27 27 27 27 26 25 26 26 26 27 26 26 26 27 27 27 27 27 27 28 28 30 29 29 29 27 27 28 28 28 27 27 28 27 25 24
22 23 24 24 24 26 28 30 29 29 28 26 25 25 26 25 26 27 27 26 25 26 26 26 26 27 27 27 27 26 25 26 24 24 24 24 24 23 22 22 23 22 22
19 22 22 22 22 24 25 27 29 30 28 27 26 25 25 25 26 27 26 27 28 28 25 26 27 27 26 27 28 26 24 23 23 23 22 20 20 19 19 19 19 20 20
19 18 19 19 20 21 22 23 26 28 28 27 26 24 24 24 25 25 23 29 30 31 31 31 30 29 30 30 29 29 27 26 25 20 18 17 17 17 17 16 16 17 17

GFSMW_sfc_temp_099.txt.gz
Temp
60 62 62 63 62 62 62 62 61 64 70 71 70 67 66 68 69 70 69 69 68 66 65 65 66 66 65 65 64 63 64 62 64 61 60 60 62 62 63 63 62 61 62
59 60 60 60 59 59 60 59 60 62 64 73 74 72 69 68 70 69 67 68 67 66 65 65 65 65 64 64 64 63 61 62 63 59 58 55 56 59 62 62 62 62 62
55 56 56 57 57 57 57 58 58 59 61 64 74 72 69 67 65 66 65 67 68 66 65 66 65 64 65 63 64 64 62 60 62 62 59 53 53 55 58 60 62 61 60
55 55 54 54 55 55 55 54 56 58 61 64 70 70 67 66 69 69 67 65 65 64 64 65 66 65 64 64 64 65 63 62 60 61 65 63 63 57 53 57 59 60 60
53 52 52 53 53 52 51 51 53 55 58 63 68 71 67 70 72 70 65 64 66 64 62 62 64 64 64 65 66 63 62 62 61 60 59 59 60 62 59 54 55 57 60
50 51 52 50 48 49 49 49 50 51 55 62 67 69 68 69 67 67 64 67 66 63 64 64 64 64 64 65 66 64 63 62 62 62 60 60 59 60 62 58 57 56 56
47 47 47 45 44 45 45 46 48 49 53 55 69 68 67 69 68 68 67 67 66 64 64 64 64 63 65 65 67 63 64 62 62 61 61 61 62 67 66 62 58 56 54
45 45 45 44 42 43 43 44 45 47 51 53 67 67 65 64 67 68 68 68 67 66 65 64 64 64 66 64 64 63 63 63 61 62 62 61 61 62 64 65 62 54 53
43 43 44 44 41 41 41 42 44 46 50 53 65 65 63 62 63 67 68 67 65 64 62 64 63 63 62 63 64 62 62 62 62 62 61 60 61 62 62 63 62 60 51
42 43 42 42 40 40 41 42 43 45 49 52 63 62 63 63 62 63 62 63 63 61 62 62 62 62 62 65 63 62 62 61 61 62 60 60 61 62 62 60 61 59 57
41 41 41 41 40 40 40 40 42 44 47 48 59 61 61 60 60 61 63 62 61 60 61 62 62 63 62 62 61 61 61 60 60 60 60 59 60 58 59 59 59 56 56
41 41 40 40 38 37 38 38 40 41 45 47 52 59 60 61 61 60 62 61 60 60 61 62 61 61 60 60 59 59 59 60 59 59 59 58 59 58 59 57 57 57 56
39 40 39 37 36 36 36 37 39 39 43 45 45 47 48 57 60 60 60 60 59 59 60 60 60 60 59 59 58 59 61 60 59 60 60 59 58 57 57 57 56 56 55
36 37 37 35 35 36 36 36 37 38 40 42 42 41 43 44 50 60 60 60 60 60 60 59 57 56 54 56 58 58 58 58 60 58 58 59 58 58 57 57 56 56 55
34 35 34 34 34 35 35 35 36 36 38 38 39 39 41 41 41 46 45 57 54 52 51 49 47 46 46 45 47 54 57 58 53 48 46 43 52 52 55 57 56 55 55
33 33 34 34 33 33 33 33 34 35 37 35 36 39 39 39 37 38 39 41 43 43 42 40 40 40 41 38 40 48 50 48 46 43 42 40 40 39 39 39 41 51 55
32 32 32 33 32 32 33 32 32 33 35 34 35 36 37 37 38 37 36 34 36 37 37 37 37 36 38 37 38 39 42 41 40 39 39 39 38 38 37 36 35 34 35
31 32 32 32 32 33 32 34 33 32 31 33 33 33 35 35 36 35 33 32 32 34 34 35 36 36 36 36 37 37 38 36 35 35 36 36 35 36 36 35 33 32 32
31 30 31 31 31 31 32 32 32 32 31 30 30 31 32 31 32 32 32 32 32 32 32 34 34 34 35 36 36 36 36 34 33 34 35 34 34 35 36 33 31 29 28
30 30 31 30 30 30 31 30 29 29 28 29 30 31 31 30 30 30 31 32 32 31 32 31 32 33 33 35 35 36 35 32 32 33 33 34 33 34 34 32 31 27 26
30 31 31 29 30 30 30 27 28 26 28 30 30 30 31 30 30 30 30 30 30 30 30 29 30 30 32 33 35 35 33 32 31 30 30 31 32 32 32 31 28 26 27
28 30 29 29 31 32 32 28 26 28 28 29 29 28 29 30 31 30 30 30 30 29 28 28 27 28 28 31 31 32 31 32 29 28 29 30 31 31 30 28 29 28 27
27 30 29 30 30 31 31 29 29 30 30 28 27 29 29 30 31 30 30 31 31 30 30 29 29 29 29 28 29 29 28 28 26 27 28 28 28 28 27 27 27 26 26
24 27 28 28 27 29 30 30 33 34 32 30 29 29 29 29 31 32 32 31 31 31 31 31 29 29 29 29 29 28 28 27 27 26 26 25 24 24 24 24 24 24 24
22 24 24 25 24 28 28 30 31 34 32 31 30 30 30 29 29 29 30 31 31 32 30 30 31 30 28 28 29 28 28 27 26 27 27 26 25 23 22 22 22 23 24
21 21 21 21 22 25 25 27 30 33 32 31 30 28 30 30 30 30 28 29 30 31 31 31 31 30 30 30 30 29 28 27 26 26 24 23 23 21 21 21 21 21 21

GFSMW_sfc_temp_102.txt.gz
Temp
71 74 73 73 72 72 70 70 70 71 72 73 76 79 78 76 78 81 80 78 76 73 72 72 70 69 69 69 68 67 65 65 67 64 62 63 66 67 65 66 64 63 64
69 70 70 70 69 68 68 67 68 68 69 71 73 78 80 80 78 80 79 77 74 73 72 69 68 68 68 68 68 69 63 65 66 61 60 56 58 64 65 65 64 63 62
64 66 66 66 66 65 65 64 65 65 66 67 70 73 78 80 75 74 73 75 74 72 71 69 67 67 68 68 69 67 65 61 63 66 64 56 57 58 62 63 65 62 61
64 65 64 63 62 62 62 59 60 61 62 64 66 69 73 76 78 76 72 71 70 69 69 67 67 66 67 67 68 68 68 66 61 63 67 72 66 60 54 58 62 65 62
62 61 61 61 62 60 57 54 54 56 56 57 58 64 69 77 80 77 70 68 67 67 68 66 67 65 66 66 67 69 70 68 64 62 63 65 66 69 64 55 56 60 62
60 61 61 61 60 59 56 51 50 50 52 54 56 58 66 72 78 76 68 66 65 66 67 68 68 67 66 66 65 67 70 69 66 64 63 65 64 65 62 61 59 58 58
58 58 58 57 56 54 53 48 46 46 49 50 53 58 66 70 73 75 70 65 65 65 66 69 66 66 66 67 66 66 69 68 65 64 62 63 64 67 65 61 59 57 57
57 57 56 55 54 51 51 47 43 44 46 49 52 57 70 72 75 72 69 68 68 70 72 68 68 68 68 67 66 66 70 70 67 65 64 62 63 68 61 62 59 57 57
54 54 55 53 52 49 48 43 42 43 45 47 50 56 72 73 69 68 68 68 74 76 73 69 66 64 64 66 65 67 69 66 63 64 65 63 64 64 63 61 60 60 53
53 52 52 50 50 48 48 42 42 42 43 46 49 54 67 68 69 68 68 67 73 72 70 67 66 64 64 65 66 67 66 63 63 64 62 63 65 64 63 62 61 61 59
50 50 50 50 49 49 47 41 40 40 41 44 47 50 63 66 66 66 65 64 66 68 65 65 62 62 63 64 63 63 66 65 62 63 62 63 63 61 61 63 67 65 65
49 49 49 48 47 47 45 40 39 38 40 42 45 48 50 56 61 61 62 64 63 65 66 65 62 61 63 64 64 64 64 62 60 61 60 61 61 61 62 62 62 59 61
47 47 48 46 46 45 42 38 37 36 37 40 43 44 44 46 49 59 61 62 65 66 66 65 63 62 66 65 62 62 61 61 61 61 60 61 60 60 59 60 58 58 58
43 44 44 45 45 44 42 37 35 35 35 37 40 40 43 43 43 47 54 60 63 63 64 65 63 62 61 61 61 60 60 60 63 66 64 65 62 60 58 58 58 57 56
38 40 41 41 43 41 40 40 36 35 37 35 35 38 40 40 41 41 42 46 53 59 59 55 53 54 54 48 51 57 60 59 59 52 51 46 44 45 54 58 57 57 55
36 38 40 39 39 38 37 37 37 34 35 35 35 36 36 40 40 39 38 38 39 42 46 46 47 44 41 38 39 47 55 52 51 47 45 43 41 41 41 42 45 53 55
34 34 36 36 37 35 36 36 34 36 33 33 34 33 34 35 36 37 37 34 35 35 37 39 39 38 38 38 39 40 47 43 42 42 43 43 41 40 39 37 36 35 36
31 32 33 34 35 35 35 37 37 35 34 33 32 33 32 33 34 35 34 33 33 32 32 34 36 36 36 36 37 37 39 38 37 37 38 38 38 37 38 36 34 33 33
32 31 32 34 33 33 35 35 34 35 34 32 32 32 31 31 32 31 32 32 33 32 31 32 34 35 35 36 36 37 35 34 34 35 36 35 35 36 37 35 32 31 29
31 32 31 31 32 31 34 33 32 31 30 30 31 32 32 31 31 31 31 31 31 30 30 29 31 33 33 35 35 36 34 32 32 33 33 33 33 34 34 32 31 27 27
31 32 33 31 32 33 32 31 31 29 30 32 32 32 32 32 32 32 32 32 31 30 29 28 28 29 31 32 34 34 32 31 30 30 30 32 32 32 32 31 29 27 28
31 33 32 32 34 36 36 31 30 31 32 32 32 31 32 32 33 32 32 32 32 31 31 29 28 28 28 30 31 31 31 31 29 28 29 30 31 31 31 29 29 29 28
32 36 35 34 34 35 34 32 35 35 34 32 31 32 32 32 33 32 32 34 33 32 32 31 30 29 30 30 30 29 29 28 26 27 28 29 29 29 28 29 29 28 26
29 33 34 32 32 34 34 34 37 41 38 36 34 34 33 33 32 35 35 32 32 33 32 31 31 31 31 31 31 31 31 29 29 28 28 27 27 26 26 26 27 27 26
27 30 29 30 30 33 33 35 36 39 38 37 36 35 35 34 33 30 29 31 30 31 31 30 30 29 27 28 29 30 30 30 29 30 30 29 29 28 27 28 28 29 28
25 25 26 26 29 31 30 32 36 37 36 36 35 34 34 34 35 34 31 29 29 30 30 30 31 29 29 29 29 28 28 28 29 30 29 27 28 27 27 27 27 27 27

GFSMW_sfc_temp_105.txt.gz
Temp
77 78 76 76 76 76 75 74 72 73 74 74 75 77 78 83 85 85 85 84 82 79 76 76 75 75 71 74 69 69 69 67 70 66 65 67 71 69 71 70 70 67 64
74 73 74 74 72 71 71 70 70 71 71 72 73 74 76 80 84 85 83 83 79 76 73 74 75 74 71 73 69 69 66 67 67 63 62 57 59 64 70 70 68 65 63
70 71 71 71 70 69 67 67 66 66 68 68 69 71 74 75 76 81 81 82 81 78 73 74 74 71 71 69 68 70 67 65 65 67 65 57 57 59 65 67 67 65 64
69 70 69 69 68 68 67 65 64 64 65 65 64 62 66 71 79 81 83 80 80 75 73 74 72 70 71 69 69 70 69 70 63 65 69 73 72 64 56 62 65 65 64
67 67 67 67 69 67 65 63 62 61 62 61 59 57 58 66 74 78 82 80 77 74 74 73 71 68 69 68 68 69 70 72 67 65 63 69 69 70 67 57 59 62 64
66 67 68 67 66 65 63 60 59 58 58 54 53 52 53 57 66 75 79 80 76 71 70 69 69 69 70 67 66 68 71 72 71 69 67 67 65 65 66 64 62 60 61
64 64 63 63 62 60 59 56 54 53 52 49 49 50 52 54 60 67 74 78 72 67 66 67 66 69 68 66 66 66 68 70 70 69 68 67 70 70 70 66 64 58 59
62 62 61 60 59 58 56 51 50 49 49 46 46 49 51 54 60 67 73 75 74 71 67 66 66 67 69 70 68 69 69 69 68 68 69 68 69 70 69 66 64 58 55
60 59 60 58 57 55 52 49 49 49 46 44 44 46 49 53 63 70 74 74 74 73 67 66 66 66 67 67 67 66 67 68 69 70 68 66 66 67 66 65 62 59 54
58 58 58 57 56 54 52 49 49 46 44 43 43 46 48 52 64 72 73 74 74 73 72 68 66 66 67 69 68 64 67 67 69 70 69 68 66 66 65 65 61 59 57
55 56 56 57 55 54 52 48 46 44 42 41 42 44 46 49 54 68 72 73 74 73 72 70 67 66 67 64 64 67 64 65 67 67 66 64 66 65 64 62 64 61 60
54 55 55 55 53 51 50 48 44 43 42 40 41 42 44 46 48 51 60 70 71 70 72 68 69 69 66 66 60 59 62 64 66 66 63 62 65 65 65 63 60 60 61
52 52 53 52 50 48 47 46 42 40 41 39 39 40 41 43 44 45 49 61 66 65 64 68 68 68 67 65 63 61 60 64 67 67 64 62 63 61 61 62 60 61 60
47 47 49 49 48 47 46 44 42 38 38 38 37 36 38 40 42 42 44 45 51 62 62 65 66 66 66 67 67 64 62 64 65 64 63 63 62 61 61 60 60 60 59
43 43 44 44 44 44 43 43 41 40 36 35 34 33 35 38 40 40 40 41 40 43 52 59 56 58 57 58 62 62 60 60 61 58 57 50 45 42 44 55 59 58 57
39 40 41 40 40 39 40 40 40 39 37 33 33 35 36 35 36 37 38 37 38 37 39 41 45 44 44 39 41 54 56 54 53 48 47 46 43 43 38 40 42 50 56
36 36 37 37 37 37 38 38 39 39 37 33 33 33 33 33 33 35 35 35 36 36 34 35 37 37 38 38 41 42 46 42 42 43 43 44 43 42 42 38 37 36 36
33 34 35 36 35 36 38 39 40 37 35 33 33 33 33 32 32 32 32 32 33 33 32 32 33 35 36 37 38 38 39 38 37 37 38 38 40 39 40 38 34 33 33
32 31 34 35 34 33 36 37 36 36 34 32 32 32 33 33 33 32 31 31 30 30 30 31 31 32 33 35 36 37 35 34 33 34 35 36 36 35 38 35 32 32 31
32 33 32 32 33 32 35 34 33 33 31 31 31 33 33 33 32 32 32 32 31 29 29 29 29 31 31 33 34 35 34 31 31 32 32 33 33 34 35 34 32 28 27
32 33 34 32 32 35 34 32 32 31 32 33 33 33 34 33 33 33 33 33 32 32 30 29 28 28 29 30 33 33 31 30 30 29 29 31 32 33 32 31 29 27 29
33 34 33 33 37 38 37 34 32 33 34 34 33 33 32 33 34 33 33 33 33 32 32 31 30 31 29 30 30 30 30 30 28 27 29 30 31 31 31 29 30 29 28
33 37 36 35 37 37 37 35 37 40 38 36 33 33 33 33 33 32 31 31 33 32 31 31 29 29 31 31 31 30 29 29 26 27 28 29 30 30 29 29 29 28 27
31 35 36 35 34 36 37 38 40 43 41 38 37 37 36 34 33 33 33 30 29 31 30 29 29 28 28 29 31 32 31 31 31 31 31 29 29 29 28 28 28 27 27
30 32 32 33 33 35 35 37 39 41 40 38 37 38 37 36 34 31 30 29 29 29 27 28 27 26 25 27 29 29 29 30 31 31 32 31 30 29 29 29 29 29 29
28 28 28 29 30 31 31 33 36 38 37 36 37 35 37 37 36 34 31 29 29 29 29 29 29 29 29 29 30 30 30 30 31 31 29 29 29 28 28 27 28 29 28

GFSMW_sfc_temp_108.txt.gz
Temp
76 76 74 73 72 70 69 68 67 66 66 67 66 67 68 70 71 77 78 77 75 75 75 74 74 72 72 72 70 67 68 65 66 64 64 63 65 66 64 64 65 64 64
74 73 72 71 69 68 66 65 65 64 64 65 65 65 64 66 68 70 71 76 76 74 74 73 72 72 71 70 69 67 65 66 67 63 60 56 59 61 64 66 65 63 63
70 70 70 68 67 65 64 64 63 62 62 63 63 64 64 65 66 67 69 72 76 75 73 73 71 69 68 66 68 67 65 64 65 66 59 55 54 56 61 63 62 62 61
70 69 67 66 66 63 63 62 61 61 62 60 58 56 56 56 59 63 68 72 75 75 73 72 71 69 68 66 66 67 66 66 62 64 66 63 61 55 54 59 63 62 62
66 65 65 65 65 63 60 59 58 58 57 57 55 52 51 54 57 60 62 66 70 74 73 71 70 68 67 67 68 66 67 65 64 63 62 63 63 62 57 52 57 60 61
64 65 64 63 61 60 58 56 54 53 54 54 51 49 47 49 51 53 56 61 67 70 72 70 70 70 67 66 67 65 66 65 65 65 64 62 62 61 58 56 55 57 58
61 61 59 58 57 56 55 53 52 51 53 51 48 47 47 47 48 50 53 56 60 65 68 69 67 67 67 66 67 66 65 65 64 64 64 65 65 64 63 59 56 56 57
59 58 58 56 56 55 53 51 50 48 49 48 46 46 46 47 49 50 53 55 59 65 67 67 67 66 66 67 66 66 63 62 61 63 64 64 65 65 62 60 57 55 55
56 56 57 56 55 53 52 49 47 46 46 45 44 43 45 46 47 49 52 56 60 65 68 67 66 66 66 66 63 61 62 63 63 61 63 63 64 65 62 61 60 57 53
55 55 55 54 53 52 51 49 46 44 44 44 43 43 43 46 47 49 51 58 63 68 68 66 66 65 66 65 64 65 66 65 65 65 64 64 64 63 63 61 59 59 56
53 53 54 54 51 51 49 47 45 42 40 41 42 42 42 43 45 46 48 49 53 68 68 67 66 65 64 64 64 65 65 63 62 63 64 63 63 62 63 61 59 58 58
51 51 52 51 49 47 47 45 43 41 39 39 41 40 40 41 43 43 45 48 48 54 67 67 66 65 64 64 63 62 62 62 59 61 61 61 61 62 62 61 61 60 60
48 48 48 46 46 45 44 43 41 40 39 38 38 38 38 38 39 41 42 45 45 48 56 65 64 63 63 62 62 62 62 61 61 59 60 60 60 59 60 60 60 60 59
45 44 43 43 43 42 42 42 40 40 38 37 36 36 36 37 37 39 40 41 43 43 45 54 60 62 63 63 63 61 60 59 59 62 63 62 60 59 61 59 60 59 59
42 41 40 39 39 39 39 41 40 38 38 36 34 34 36 37 36 36 37 38 39 40 40 42 44 46 49 49 55 61 59 59 57 56 53 48 45 42 43 54 58 59 58
38 38 38 38 36 36 37 39 38 37 36 35 34 35 35 35 34 34 34 34 35 36 37 36 38 39 41 38 42 54 59 57 55 48 47 44 44 41 38 39 39 42 54
34 34 35 35 34 34 36 36 36 37 34 33 34 34 34 33 33 33 32 31 31 33 33 34 34 34 35 37 39 42 45 42 41 42 44 43 42 41 42 38 37 36 35
32 33 33 34 33 34 34 35 36 35 33 33 33 33 33 33 33 33 32 30 30 29 29 30 32 33 33 35 35 36 38 36 35 35 36 37 37 37 39 36 34 32 32
32 31 32 33 33 32 34 33 34 34 34 32 32 32 33 32 33 32 32 32 31 29 29 29 29 30 31 34 34 34 34 32 32 33 34 34 34 36 39 35 32 31 31
32 32 32 32 32 32 34 33 33 32 31 32 32 32 33 32 32 32 32 32 32 32 31 29 29 30 29 32 33 32 32 30 30 31 31 33 33 34 34 33 32 28 27
32 33 33 32 32 33 33 32 33 31 33 34 33 33 33 33 32 32 32 32 32 32 31 30 30 30 30 30 32 31 29 29 29 29 29 30 32 33 32 31 29 27 28
32 33 31 31 35 38 37 34 33 32 34 34 34 32 32 32 32 30 30 31 31 30 30 29 28 29 30 32 32 31 30 29 27 26 28 30 32 32 31 30 30 30 28
30 33 35 35 36 37 37 34 36 38 36 35 34 34 32 31 31 29 27 27 28 28 27 27 26 26 27 28 31 32 32 31 29 29 30 31 31 31 29 30 29 28 27
31 35 34 32 31 33 34 35 38 40 39 35 35 35 34 31 30 31 29 27 26 25 25 24 23 24 26 27 28 29 30 31 31 31 30 30 29 29 29 29 28 27 26
29 31 30 29 29 30 31 34 36 37 36 35 33 34 34 34 30 27 27 27 26 27 24 24 24 22 22 26 30 30 29 30 30 30 30 29 28 27 27 27 27 28 28
28 27 27 26 26 27 27 29 33 34 33 32 32 31 32 32 32 32 28 30 30 30 29 29 27 26 29 31 32 32 32 33 32 28 26 25 25 25 25 25 25 26 26

GFSMW_sfc_temp_111.txt.gz
Temp
65 65 64 63 62 61 60 59 58 57 58 57 56 58 57 60 61 64 66 66 68 70 71 71 70 71 70 71 68 67 67 63 65 62 61 60 64 64 64 66 64 64 64
64 63 62 60 58 57 57 57 56 55 56 56 56 55 56 57 60 62 64 65 66 65 70 70 70 70 68 68 67 67 63 63 65 61 60 57 58 61 64 64 63 63 62
62 60 60 57 56 54 53 54 54 54 54 54 54 54 54 54 55 57 58 60 63 64 66 70 70 69 68 68 65 64 64 61 62 62 58 54 53 54 57 61 63 62 61
61 59 58 55 54 52 53 52 52 52 54 52 50 47 46 46 50 51 55 56 59 60 63 67 70 69 67 65 64 60 61 59 61 61 64 59 57 53 54 56 59 62 61
57 55 54 54 54 52 49 50 51 51 51 50 48 46 44 46 49 50 50 52 55 58 61 63 67 69 66 65 61 60 62 65 63 61 63 62 59 57 54 53 56 60 62
55 55 56 55 51 49 47 47 48 49 49 48 47 45 44 45 45 46 47 50 52 53 57 61 64 68 68 65 64 63 64 63 64 65 65 64 61 60 57 53 52 56 59
52 52 52 51 50 47 46 49 46 44 46 46 46 45 43 45 44 46 47 48 50 51 54 58 61 64 67 67 65 64 64 64 63 63 62 63 64 61 62 56 54 54 57
53 51 50 48 47 48 46 44 43 41 42 44 44 44 44 44 45 46 48 48 49 53 55 56 61 61 63 65 65 64 63 61 63 62 63 63 63 63 61 61 55 53 54
50 50 49 47 47 46 45 43 43 40 40 41 41 42 43 43 43 44 46 48 51 53 56 55 59 59 60 62 65 66 61 60 58 59 62 62 63 62 62 60 58 56 53
49 49 47 46 46 45 44 42 41 42 40 40 40 41 41 42 42 43 45 46 48 50 52 58 59 61 60 63 65 64 62 61 61 61 60 60 62 62 62 60 58 58 54
46 46 45 44 44 43 42 42 40 40 38 38 39 39 39 40 41 41 43 43 45 48 50 53 62 64 65 65 63 62 61 61 60 61 61 61 63 61 61 61 60 57 57
43 43 42 42 41 40 41 41 40 39 39 39 38 38 39 39 39 39 41 42 43 45 47 51 57 64 65 66 62 61 62 62 61 62 62 62 61 60 60 60 59 59 58
40 39 39 38 38 39 39 39 39 38 38 38 37 37 37 37 37 37 38 39 40 42 43 46 48 53 63 64 63 63 63 63 62 61 60 59 59 59 60 59 59 59 59
39 38 36 37 37 38 38 38 37 37 36 36 36 35 36 36 36 36 36 36 38 38 40 41 43 45 45 47 51 61 60 58 58 58 58 58 59 60 60 59 59 59 58
36 36 36 35 35 36 36 37 36 36 36 35 35 34 36 36 36 35 34 34 34 35 37 38 39 39 39 39 41 47 58 56 55 54 51 50 48 47 51 58 58 58 58
34 34 35 34 34 34 34 34 34 34 35 34 33 34 35 35 35 35 33 32 32 32 33 34 35 35 37 37 37 41 57 55 52 47 45 45 42 40 41 41 39 43 57
32 32 32 31 32 31 33 32 32 34 34 33 33 34 34 34 33 34 34 32 30 31 30 31 32 32 34 36 35 36 41 44 43 42 43 42 42 42 39 37 36 35 35
29 30 30 31 31 32 33 33 33 33 32 32 32 33 32 32 33 33 32 32 32 30 29 29 30 31 32 34 34 33 33 33 33 34 35 36 36 38 40 37 34 32 33
31 27 31 32 33 32 33 33 32 33 33 31 31 31 31 30 31 30 31 32 31 30 29 30 30 30 30 33 34 34 31 31 30 32 33 33 33 36 39 35 32 31 30
30 31 32 31 31 32 33 32 32 31 31 32 31 32 32 30 29 29 29 30 30 29 29 28 28 31 30 33 32 31 30 28 29 30 31 33 32 34 34 32 31 28 27
31 32 31 30 31 32 32 31 32 31 32 33 32 31 31 30 28 28 28 28 29 28 28 27 28 28 30 31 33 32 28 27 28 28 29 30 32 33 32 31 29 27 28
31 31 29 28 31 34 34 31 30 32 33 32 32 30 30 30 29 27 27 27 26 26 24 25 25 27 28 31 32 33 32 31 28 28 29 30 32 32 31 30 30 30 28
29 31 30 30 31 32 32 30 32 34 33 32 31 29 29 28 28 26 25 25 25 23 24 23 22 23 26 28 32 32 32 32 30 30 30 31 31 31 29 30 29 28 27
28 29 28 27 26 28 29 30 32 35 34 31 30 31 30 27 27 27 26 25 23 23 22 22 22 23 25 27 29 29 30 30 30 30 29 29 28 28 28 28 28 27 26
25 26 24 24 23 25 25 27 28 31 30 30 29 29 29 29 27 26 25 25 26 27 24 23 23 23 24 27 31 30 28 28 28 28 27 26 26 25 25 26 26 27 27
23 21 21 21 21 22 22 24 26 29 28 28 28 28 27 27 28 27 23 30 30 30 30 30 28 23 30 31 32 31 31 30 29 24 22 22 23 23 23 23 24 25 25

GFSMW_sfc_temp_114.txt.gz
Temp
60 59 58 58 57 56 55 55 53 53 53 53 52 53 52 53 55 57 60 60 60 61 62 67 67 67 67 68 66 66 64 64 65 61 59 61 64 63 64 64 63 63 64
59 56 54 53 52 52 52 52 51 51 51 51 50 49 50 50 53 55 55 57 57 57 59 59 64 68 67 66 64 66 65 65 64 64 62 58 59 61 63 64 63 63 64
55 53 52 50 49 48 49 49 49 49 50 50 49 48 48 49 49 50 50 53 54 55 55 57 59 60 66 67 66 64 65 65 62 61 59 55 55 57 59 61 62 62 62
53 52 49 47 47 46 48 48 50 49 50 48 46 44 42 42 45 46 49 50 52 53 54 55 57 59 61 65 66 64 63 60 57 57 58 59 57 53 53 58 62 61 61
49 49 48 47 46 46 45 47 46 46 47 46 45 43 42 43 44 47 48 49 50 52 52 53 54 56 58 62 66 62 58 59 57 56 57 59 60 58 54 52 57 61 62
49 49 49 48 46 45 45 45 44 42 44 45 43 45 43 43 43 44 46 48 50 51 53 54 53 55 58 61 64 63 62 59 59 59 62 62 60 59 56 52 55 58 60
46 46 45 44 44 44 43 45 42 41 40 41 41 43 44 43 43 43 44 45 46 47 50 52 53 54 55 59 63 61 60 60 60 60 61 62 64 63 62 55 52 53 57
45 44 44 44 43 43 42 40 41 40 40 40 40 42 43 42 42 42 43 44 46 48 49 50 53 53 55 57 61 63 61 60 61 61 61 62 64 64 62 61 55 52 54
42 42 43 42 42 42 40 39 39 40 39 38 39 40 41 41 40 41 43 44 45 47 47 48 49 52 55 56 59 61 60 61 62 62 63 63 63 62 62 62 61 58 52
39 40 41 41 41 41 41 40 40 38 39 39 39 39 39 40 41 41 40 41 43 44 44 46 48 51 55 56 57 59 62 62 61 62 62 62 62 61 61 61 59 58 54
40 39 39 40 40 40 40 39 37 37 37 38 38 38 38 39 39 39 39 39 40 42 43 44 46 50 52 58 57 59 61 61 61 59 59 62 63 61 60 60 60 59 57
38 38 38 38 38 38 39 38 35 35 36 38 37 37 38 38 37 37 37 38 38 40 41 43 44 46 47 51 60 59 62 60 60 60 58 59 60 61 60 60 59 59 59
36 36 37 35 36 37 37 36 34 34 36 37 37 36 36 36 36 36 36 36 36 37 38 40 41 41 43 44 48 58 60 60 60 61 59 59 59 57 58 58 58 59 59
36 35 34 35 35 36 35 35 34 35 35 36 35 35 35 36 36 36 35 35 35 35 35 37 38 38 40 40 41 46 53 58 61 62 61 61 60 59 59 59 58 59 59
34 34 32 33 33 34 33 34 34 35 35 34 34 34 35 36 36 35 35 35 34 34 34 34 35 35 38 38 37 44 49 51 58 57 56 56 57 52 54 59 60 59 58
32 32 32 32 32 33 33 33 33 33 34 33 33 33 34 34 34 34 34 33 33 33 33 32 33 33 35 36 36 39 38 37 43 49 46 45 44 42 41 41 43 54 57
30 30 31 31 32 31 32 32 33 33 32 32 32 33 32 31 31 32 33 31 30 30 30 30 31 32 33 35 35 35 34 34 33 34 38 41 41 41 39 38 38 36 36
29 30 30 31 32 32 33 33 33 32 32 30 30 31 30 30 30 30 30 29 30 29 28 28 30 31 32 33 34 34 34 32 31 32 32 34 34 37 39 38 35 33 33
29 29 31 31 31 31 33 33 32 32 32 30 29 30 29 27 28 27 27 29 28 28 27 28 28 29 30 34 33 31 31 31 30 31 32 32 32 34 36 35 33 32 30
31 30 27 25 27 29 31 32 32 32 31 31 30 30 30 27 25 25 26 26 27 25 26 26 27 30 29 33 34 32 29 28 29 30 30 32 32 33 33 31 31 29 27
30 28 28 27 27 30 30 29 30 28 30 32 30 29 29 28 27 26 26 25 25 25 25 25 26 27 29 30 34 33 30 28 28 28 28 30 32 32 32 32 29 28 28
28 28 26 26 29 31 30 28 27 29 30 30 30 28 28 28 28 25 25 25 24 23 23 24 25 27 28 31 32 33 32 32 28 27 28 29 31 31 31 29 30 30 28
25 28 27 26 27 28 27 26 29 32 30 29 28 27 26 26 26 25 25 25 25 24 23 23 23 25 27 28 31 31 31 30 28 29 30 30 30 30 29 30 29 27 26
23 26 25 23 23 25 26 27 28 32 31 28 28 28 28 26 26 26 26 25 24 23 23 23 22 24 26 26 27 27 27 27 26 26 26 27 28 27 27 27 28 28 27
21 23 22 21 21 24 24 24 26 29 29 29 28 27 28 26 26 26 26 26 25 26 23 24 24 23 22 25 29 28 25 25 25 24 24 23 23 23 24 25 25 26 26
20 19 19 19 19 21 21 22 24 27 27 27 27 26 26 26 26 26 25 29 29 29 29 30 28 25 28 29 29 29 28 28 26 21 19 19 19 19 20 21 23 24 25

GFSMW_sfc_temp_117.txt.gz
Temp
53 53 53 51 50 50 50 50 49 49 50 48 46 46 46 48 50 52 53 54 54 55 55 56 57 60 65 65 64 65 66 66 65 62 61 60 62 63 64 64 64 63 63
50 51 49 47 47 46 47 48 47 47 47 47 46 45 44 46 48 49 50 51 51 51 53 52 54 56 57 61 65 65 63 63 64 64 61 58 60 61 63 63 63 63 63
48 48 47 46 45 45 46 46 46 46 46 46 46 44 45 45 45 45 47 49 50 51 51 51 52 53 54 55 59 64 64 63 61 62 60 54 56 58 59 62 63 62 62
47 46 44 45 45 44 45 44 44 44 46 46 43 40 39 40 42 43 46 48 50 50 51 51 51 51 53 54 56 61 64 64 59 57 58 57 57 55 51 58 60 61 61
44 44 43 44 45 44 43 42 42 42 42 42 42 42 42 44 45 46 45 46 49 51 52 52 53 52 52 53 54 56 62 64 63 57 55 56 55 56 53 52 55 60 63
44 44 45 44 42 43 43 42 41 41 42 41 41 41 42 42 42 43 43 45 46 48 50 51 51 52 52 53 54 56 59 63 61 60 60 57 56 55 54 54 57 58 62
39 39 41 41 40 40 40 42 40 38 39 39 39 42 42 42 41 41 41 42 43 45 47 48 48 49 51 53 54 54 56 62 61 59 59 61 61 60 60 58 58 56 57
36 37 37 39 41 40 39 39 39 38 38 38 39 40 41 41 41 41 41 42 42 43 45 46 46 47 49 51 52 54 55 59 61 60 58 60 61 62 62 60 58 53 53
34 34 34 36 39 39 39 38 38 37 38 38 39 39 40 39 39 40 41 41 42 43 44 44 45 46 47 49 52 54 55 58 61 61 59 59 60 61 62 62 62 59 53
35 35 34 35 37 39 39 38 37 36 37 38 38 38 39 39 39 39 38 38 39 40 41 42 43 44 46 49 50 52 56 56 60 61 61 60 60 60 61 61 62 61 59
34 34 34 36 37 38 37 35 35 36 36 38 38 37 38 38 38 37 37 37 37 38 38 40 41 42 42 45 45 46 56 55 58 60 59 59 61 61 61 60 61 60 59
34 34 34 36 37 37 35 34 34 34 36 37 37 37 37 37 37 36 36 36 36 37 37 38 39 39 40 41 42 42 45 56 57 60 59 59 60 60 61 60 59 59 60
35 35 35 35 34 35 33 33 34 34 36 37 36 36 36 36 36 36 36 36 35 36 36 37 36 37 38 39 39 40 43 47 58 59 59 60 59 59 60 60 60 59 58
34 34 33 33 34 34 33 33 34 34 35 35 34 33 34 34 35 35 34 34 34 34 34 35 36 36 37 37 37 38 43 48 53 58 59 60 59 58 59 59 59 58 57
32 32 31 32 33 33 33 33 34 33 34 33 33 32 33 33 34 34 33 32 32 33 33 33 34 35 35 35 35 37 39 40 41 42 46 52 51 53 56 59 57 56 55
31 31 31 32 32 32 31 32 32 31 32 31 31 32 32 31 31 31 30 31 30 30 31 31 32 33 35 35 35 35 35 36 36 36 37 40 40 43 44 45 46 53 56
29 30 31 31 31 31 32 31 31 33 32 31 31 30 28 28 28 29 29 28 28 28 27 28 29 30 32 34 34 34 33 32 33 33 35 35 36 36 40 38 37 37 38
29 30 30 31 31 32 33 33 33 31 31 30 29 30 28 26 26 25 25 25 25 25 25 26 27 28 31 34 33 32 31 31 31 31 32 32 33 33 37 37 34 33 33
26 27 29 29 26 28 30 33 31 31 31 29 28 28 28 25 24 22 22 23 24 24 24 26 27 27 28 33 33 32 30 29 29 30 31 31 32 33 35 34 33 33 31
29 27 24 22 25 28 29 29 29 29 29 28 28 28 28 25 23 22 21 22 22 23 25 25 27 29 27 32 34 32 29 28 28 29 29 31 31 32 32 30 29 29 28
26 27 26 25 26 29 29 26 26 25 29 30 29 28 27 26 24 24 24 23 22 23 23 24 26 27 28 28 32 32 28 27 27 27 27 29 31 32 32 31 28 27 28
26 26 24 24 27 27 28 26 25 25 27 28 28 26 26 27 26 24 24 24 24 23 24 23 24 26 26 30 30 31 30 29 25 25 26 28 30 30 31 30 30 30 28
24 26 24 24 25 26 26 25 27 30 29 28 25 25 25 26 25 24 22 23 23 23 23 22 22 22 25 26 29 29 29 27 23 25 27 28 28 29 27 29 29 28 27
20 23 23 22 23 25 26 26 27 29 29 28 27 28 26 26 26 26 25 22 23 23 23 21 20 20 22 24 25 25 24 24 23 23 23 24 25 25 25 26 26 26 26
20 22 22 22 21 23 23 23 26 28 29 28 27 26 26 25 24 25 24 24 23 25 22 21 20 19 18 22 26 25 23 22 22 21 21 20 20 20 21 22 23 24 25
19 18 19 19 19 20 20 21 24 27 26 26 25 24 24 23 24 23 21 26 27 28 28 28 25 21 25 26 26 25 25 24 23 17 15 15 16 16 17 18 19 21 21

GFSMW_sfc_temp_120.txt.gz
Temp
47 47 47 46 46 47 47 47 46 46 47 46 45 46 45 47 47 49 49 50 50 51 50 51 52 54 55 57 62 64 62 62 66 62 61 63 64 64 64 64 64 63 62
45 46 45 44 43 43 44 44 44 45 45 45 45 44 44 46 46 46 47 48 49 49 50 48 49 51 52 53 55 61 63 63 65 62 60 57 61 62 63 64 63 63 63
42 44 45 43 43 42 43 43 43 43 45 45 45 45 43 44 44 44 45 47 49 49 49 49 49 50 51 51 53 55 58 62 62 64 60 55 56 58 60 63 64 64 63
44 44 42 42 41 43 44 43 44 43 44 43 43 42 40 41 44 44 44 46 48 48 49 51 52 52 52 52 52 54 55 58 61 60 63 59 58 56 54 58 63 63 62
40 39 40 41 41 41 41 42 43 41 42 41 42 41 40 42 44 44 44 44 45 48 49 50 50 50 51 52 53 53 54 54 57 60 57 57 57 55 56 53 55 60 62
38 39 40 40 40 41 40 41 41 41 40 40 41 40 40 41 41 42 42 43 45 46 47 48 47 48 49 50 52 54 54 54 56 59 60 59 58 56 56 54 55 58 60
37 37 37 37 38 39 38 39 38 37 40 40 40 40 40 40 40 40 40 41 41 42 43 45 45 45 47 48 49 50 51 53 54 56 59 62 62 60 61 60 55 53 56
36 35 35 35 36 38 38 37 37 37 38 39 39 40 40 40 39 40 40 40 40 40 42 43 44 45 46 47 48 49 51 53 54 55 57 62 62 62 61 60 58 53 53
35 35 35 36 36 36 37 35 36 37 38 38 39 39 39 39 38 38 39 38 39 40 40 41 41 43 44 45 46 47 49 51 54 55 56 60 62 61 61 61 61 59 55
35 36 35 36 36 37 36 35 36 36 37 38 38 38 38 38 38 38 36 37 38 38 38 39 40 41 42 43 43 44 46 47 50 56 56 60 61 61 61 61 61 60 59
34 34 34 35 36 36 35 34 35 35 36 37 38 37 37 38 38 37 37 37 37 37 37 38 39 39 39 40 40 41 43 43 46 55 56 59 61 60 60 60 60 60 59
33 33 34 35 35 34 34 34 35 35 35 37 36 36 36 37 36 35 35 35 35 37 37 37 38 38 38 38 38 38 39 41 43 47 55 57 60 59 60 59 59 59 60
32 31 33 33 34 34 34 34 34 34 35 36 35 34 34 34 34 34 34 34 34 35 35 36 36 37 37 37 37 38 39 40 43 45 49 57 59 58 59 59 59 59 59
33 31 33 33 33 34 33 33 33 33 34 34 33 32 32 32 33 33 33 32 33 32 33 34 35 36 36 36 36 37 37 37 39 40 41 43 41 43 53 58 59 60 58
31 30 31 32 32 33 31 33 31 31 31 31 30 29 31 31 31 31 30 31 30 30 31 31 33 34 35 35 34 35 35 35 35 36 38 40 40 39 39 47 58 59 58
31 31 32 32 31 32 32 31 31 31 31 30 29 29 29 29 28 28 28 27 27 28 29 29 30 31 34 34 35 34 33 33 33 32 33 36 37 36 38 38 40 43 58
30 30 30 30 31 31 31 31 30 31 31 30 30 29 28 27 26 26 25 24 24 25 27 28 28 29 31 34 34 34 32 31 30 30 31 33 34 34 36 38 36 35 35
29 29 29 30 30 30 32 31 31 31 30 29 28 28 27 26 25 24 22 22 22 22 24 26 27 27 29 34 33 32 30 30 29 29 30 30 31 32 33 35 35 33 33
29 28 29 27 26 27 29 30 30 30 29 28 27 27 26 23 23 21 20 21 21 22 23 26 25 25 26 33 33 29 28 27 28 29 29 30 30 32 33 31 31 32 31
26 25 24 25 26 27 29 28 27 28 27 26 26 27 27 24 22 21 21 22 15 21 23 23 25 28 25 31 32 29 26 24 26 27 28 31 30 31 32 28 28 27 26
25 26 25 23 25 27 26 22 24 24 26 28 28 27 26 26 24 22 21 21 19 21 21 21 22 24 26 26 31 31 24 23 24 24 24 26 30 30 31 30 28 27 28
24 24 23 23 25 26 28 24 21 22 26 26 27 25 25 26 25 21 22 22 23 21 19 19 19 21 23 28 28 29 28 26 22 22 23 25 29 29 29 28 29 29 28
23 25 23 24 24 24 24 23 26 29 29 27 24 25 26 25 24 22 20 21 22 21 19 18 17 18 21 22 27 27 26 25 20 22 24 25 26 26 25 27 27 26 25
21 22 22 22 22 24 26 26 27 28 29 27 26 26 25 24 24 24 24 22 21 20 19 17 16 17 18 20 22 22 21 21 19 19 19 19 22 21 21 22 22 23 23
17 21 21 21 21 22 23 23 25 27 28 26 26 24 24 24 22 21 22 22 22 23 20 18 17 17 16 19 23 22 19 18 18 16 15 14 14 15 16 17 18 19 20
17 17 19 19 19 20 20 21 24 27 26 24 23 22 22 21 21 20 19 25 26 26 26 26 23 18 24 24 24 23 22 21 20 13 10 9 10 11 12 12 13 15 15

GFSMW_sfc_temp_123.txt.gz
Temp
50 51 51 51 51 51 50 49 47 48 49 52 52 56 56 57 57 57 57 57 57 57 59 60 60 61 62 63 64 64 63 65 67 64 64 64 66 66 66 68 69 69 69
47 47 47 48 48 48 48 48 47 47 47 50 51 52 52 56 55 55 55 55 56 56 57 57 57 57 57 60 61 63 63 65 65 62 63 58 62 66 66 68 67 69 70
42 43 44 44 44 44 45 45 44 45 45 47 51 52 53 53 53 53 53 53 54 54 54 54 54 54 54 53 54 58 61 62 64 67 62 56 56 66 68 68 69 69 69
41 42 43 43 44 43 45 46 44 43 44 45 46 47 43 43 47 49 51 52 52 52 52 52 52 52 53 53 54 56 55 58 60 63 66 70 64 60 58 65 68 70 67
40 40 42 43 45 44 45 42 46 43 43 43 45 43 42 43 45 47 47 48 50 50 49 49 49 49 50 51 51 53 54 56 56 61 61 63 65 65 58 59 61 66 69
40 41 42 42 41 42 42 45 43 42 42 42 42 40 40 41 41 42 42 43 46 47 47 47 47 47 48 48 49 50 51 53 55 56 60 60 64 63 61 58 63 63 67
39 39 38 39 40 40 40 40 39 38 41 43 42 41 41 41 40 39 40 41 42 42 43 44 44 45 46 47 48 49 50 51 52 54 56 59 61 67 64 65 65 67 71
38 37 38 38 38 39 40 40 40 40 41 41 40 41 42 41 40 40 40 40 40 41 43 42 43 43 44 45 46 47 48 50 51 52 54 56 61 63 66 62 60 61 66
37 37 38 38 38 39 38 38 38 39 39 40 40 40 40 40 39 40 40 40 41 41 41 41 41 42 43 43 44 44 46 47 47 49 51 55 58 63 63 67 63 59 58
36 37 38 38 39 39 39 38 38 38 38 39 39 39 39 39 39 39 37 38 39 39 39 40 40 41 41 41 41 42 43 44 45 47 48 52 57 60 61 63 65 61 60
37 37 38 39 40 39 38 37 37 37 37 38 38 37 37 38 38 37 37 37 38 38 38 38 39 39 39 40 39 40 42 42 44 46 47 49 55 58 60 61 61 60 60
37 37 38 39 38 37 37 37 36 36 36 37 37 36 37 37 36 36 36 36 35 36 36 37 37 38 38 39 38 39 40 39 40 42 43 45 46 52 60 61 60 59 60
36 37 37 36 36 36 36 36 35 35 36 36 35 35 35 35 35 35 36 36 35 35 35 35 35 36 36 37 38 38 37 38 38 38 39 40 40 39 41 43 58 61 60
36 36 35 35 36 36 35 34 34 35 36 36 34 33 34 34 34 36 35 35 35 34 34 34 34 35 36 36 37 38 37 37 37 37 37 37 36 36 36 40 44 50 58
34 34 34 34 34 34 34 35 35 36 36 34 33 32 34 34 34 33 34 34 34 34 34 33 33 34 34 34 35 36 36 36 35 36 36 36 36 36 36 39 39 40 43
33 33 33 33 33 34 34 34 34 35 36 34 33 33 33 32 31 32 32 33 32 33 33 32 32 32 34 34 34 34 34 35 34 34 34 36 35 35 35 36 37 36 34
33 32 32 33 33 33 35 33 34 36 34 33 32 31 30 29 29 30 30 29 29 29 29 30 30 31 33 34 33 33 33 32 32 31 32 32 34 33 34 34 35 35 34
32 32 31 32 33 33 34 35 35 34 33 31 30 30 29 28 28 27 27 27 28 27 27 27 28 29 31 33 32 31 31 31 31 30 31 31 32 32 32 31 31 31 31
31 30 31 31 31 31 33 33 33 32 32 29 29 29 28 26 26 24 26 27 27 26 26 26 26 27 28 32 31 29 30 29 29 30 30 30 30 32 32 30 28 28 29
30 29 27 28 29 29 31 30 29 30 28 28 29 30 29 26 24 25 26 27 27 26 27 25 25 26 27 30 30 29 28 25 27 28 28 29 29 31 31 28 27 27 27
28 29 29 26 26 29 28 27 28 26 29 30 30 29 30 27 26 26 27 27 25 24 24 24 25 24 26 27 29 28 26 24 25 25 25 27 28 29 29 29 26 25 28
28 29 27 27 30 33 32 27 26 29 30 30 29 28 28 28 27 25 26 26 25 23 22 23 23 25 25 26 26 27 25 24 23 22 24 25 26 26 26 26 27 26 26
27 29 29 29 30 31 32 30 30 32 31 30 27 28 27 27 27 26 25 26 25 23 22 22 21 22 24 25 25 25 24 22 20 22 22 22 23 23 22 24 24 22 22
27 29 29 28 27 30 30 30 32 33 32 30 29 29 28 27 27 29 28 27 25 24 22 21 21 21 22 23 24 24 23 20 19 19 20 19 20 19 19 19 20 20 19
26 28 27 27 26 28 28 30 31 32 30 29 29 28 28 27 26 25 26 26 25 25 24 22 22 20 20 21 23 22 21 20 18 18 18 16 16 16 16 16 17 18 18
25 25 25 25 25 27 26 28 31 31 30 28 27 26 26 26 26 25 24 25 25 25 25 26 25 23 24 23 23 22 21 20 19 16 14 13 13 13 14 13 14 15 15

GFSMW_sfc_temp_126.txt.gz
Temp
57 58 57 58 60 59 58 56 52 50 51 56 55 56 57 66 66 66 64 64 64 63 65 68 69 70 70 71 71 72 72 72 72 65 65 66 69 66 65 65 65 70 77
54 55 57 57 56 57 56 55 52 50 50 51 51 57 57 63 64 64 63 63 61 61 61 58 59 58 60 63 65 68 69 72 71 65 63 59 61 66 65 66 66 67 73
50 53 53 55 57 56 56 57 55 51 50 50 52 54 58 60 59 60 61 59 59 57 54 54 54 54 55 56 56 57 59 65 72 69 69 61 60 70 70 66 68 70 74
51 50 53 50 53 53 53 55 52 55 54 53 52 52 56 56 56 58 57 57 57 53 52 51 52 53 53 53 53 56 55 56 58 68 66 72 75 68 67 74 73 74 75
47 48 47 47 48 48 48 49 53 52 51 51 48 49 50 52 56 56 53 53 53 53 51 50 50 50 51 51 50 50 51 53 54 58 64 65 69 69 68 68 72 75 78
46 45 46 47 47 50 51 50 50 50 50 46 48 48 46 45 47 48 48 50 49 49 49 49 49 49 49 48 49 50 50 51 52 54 57 59 60 69 68 68 71 73 77
44 43 45 47 49 48 49 50 50 50 49 47 45 45 43 45 44 43 42 43 43 44 46 46 46 47 47 48 48 48 50 51 50 52 54 56 58 61 64 64 70 73 76
42 44 44 45 45 46 45 46 47 47 48 46 45 46 45 44 44 43 41 41 42 43 44 44 45 45 46 46 47 47 49 51 50 50 49 52 56 58 62 65 64 65 70
43 42 44 43 44 46 43 42 44 45 45 45 44 43 42 42 41 43 43 41 41 43 43 43 43 43 44 44 45 45 46 47 48 49 49 49 52 54 57 59 67 64 62
42 44 48 45 44 44 43 42 42 41 42 43 43 42 41 41 42 43 41 41 41 41 40 40 41 41 42 42 43 43 44 44 45 46 47 48 50 50 54 57 61 67 65
45 46 48 48 45 44 43 41 41 41 40 41 42 41 41 41 41 41 40 40 41 40 39 39 40 40 40 41 41 41 41 40 41 42 42 45 44 44 46 52 59 64 61
45 47 48 47 44 42 42 41 40 40 40 41 41 40 40 41 41 40 40 40 40 41 40 40 39 40 40 40 39 39 39 38 37 38 39 38 41 39 41 42 45 49 61
45 47 46 44 42 40 40 40 40 40 41 42 41 41 41 41 40 40 40 40 41 40 39 39 38 39 39 39 39 39 38 38 38 37 37 36 37 36 37 39 43 45 48
45 47 44 41 40 39 39 40 41 42 43 42 41 40 41 41 41 41 41 41 41 40 39 39 39 39 39 38 38 40 39 38 38 37 37 36 35 35 35 38 39 40 41
43 44 42 39 39 38 39 40 41 42 43 41 39 38 40 40 40 39 39 40 41 41 41 41 41 41 39 37 36 39 39 38 36 37 37 37 36 36 36 36 36 35 35
42 42 41 38 38 38 39 39 40 41 42 39 38 38 38 39 37 38 38 39 38 38 38 38 39 39 39 33 33 36 37 36 35 34 35 36 35 35 35 35 35 34 32
39 39 38 37 37 37 39 39 40 42 40 38 37 36 35 34 34 35 36 35 35 36 33 34 35 35 35 33 32 34 35 34 33 32 32 34 35 34 36 35 33 33 33
39 38 37 37 37 38 37 39 41 40 38 36 34 35 34 32 32 32 30 31 31 30 30 30 31 32 32 31 31 33 34 32 32 31 31 31 31 32 33 35 33 32 31
36 34 37 36 35 35 38 37 37 37 37 33 32 31 31 29 30 29 30 30 30 30 29 29 29 29 29 30 30 31 33 31 31 31 31 30 29 30 31 30 30 30 31
34 33 32 33 32 33 36 35 34 34 30 32 32 34 31 29 28 29 29 30 30 29 31 29 29 28 28 29 29 29 30 30 31 30 30 28 28 29 29 28 27 25 28
33 34 33 30 30 32 32 31 32 30 32 33 32 31 33 30 30 30 30 30 29 29 29 29 29 28 28 28 28 27 27 28 28 28 27 27 26 27 27 27 26 25 29
31 32 31 31 36 38 36 30 29 31 32 33 31 29 30 31 31 30 30 30 30 29 28 28 29 29 29 28 27 27 25 25 26 24 25 25 25 26 25 26 25 26 27
31 34 35 36 39 40 40 36 35 35 33 32 29 29 30 30 32 31 30 31 30 29 28 28 27 27 28 28 27 26 25 24 24 24 23 24 24 24 24 24 24 24 25
34 38 38 37 36 38 38 38 38 39 37 35 34 34 32 32 33 34 33 31 29 29 28 27 26 26 26 25 25 26 26 24 24 24 24 23 24 22 23 24 24 24 24
33 37 37 36 35 37 37 38 38 39 36 35 34 34 33 32 31 29 29 30 27 27 27 26 26 23 22 22 23 23 22 22 23 24 23 22 22 21 21 22 22 23 22
33 33 33 34 34 36 35 36 38 38 36 34 34 32 33 32 32 32 29 25 25 25 25 25 25 26 24 23 23 23 23 23 23 23 21 20 20 19 20 20 20 21 20

GFSMW_sfc_temp_129.txt.gz
Temp
63 64 63 64 65 64 63 62 60 59 60 60 61 64 61 60 61 63 65 66 65 64 64 64 65 65 65 66 67 69 70 72 72 66 68 67 67 70 67 65 65 65 66
63 62 63 63 63 62 62 62 62 61 61 62 61 62 63 65 61 60 63 64 63 60 59 56 57 58 58 58 60 60 61 67 72 67 62 61 64 65 66 65 66 67 70
60 60 60 60 60 59 59 61 61 61 60 60 63 63 64 64 63 63 58 60 61 59 55 55 56 55 56 55 55 56 55 55 63 67 66 60 62 70 69 65 67 67 68
59 59 57 56 56 57 57 57 58 58 58 57 58 56 58 58 60 60 61 60 60 58 56 54 53 53 54 53 53 55 53 52 51 59 67 69 68 60 63 70 68 69 70
55 54 52 53 56 57 57 57 57 58 55 54 53 54 53 54 56 56 56 58 58 57 55 53 52 51 52 51 51 51 51 52 50 52 54 59 64 65 63 61 70 71 73
53 52 53 54 55 56 55 57 57 57 55 54 52 49 48 47 48 47 48 50 53 54 52 51 51 50 49 49 49 49 49 50 51 52 53 53 53 58 61 59 63 67 73
51 52 53 52 52 54 54 54 54 53 52 51 50 49 49 49 48 45 44 43 45 44 46 48 47 46 47 47 48 47 48 49 49 50 50 52 53 55 55 56 57 61 70
50 51 52 53 53 54 51 51 52 51 50 49 48 47 47 47 47 45 44 43 43 43 44 43 45 44 45 47 46 47 47 48 47 48 49 50 52 52 53 53 54 55 64
50 49 50 52 52 52 47 47 48 49 47 46 46 45 45 45 44 45 44 43 43 44 43 43 42 44 45 45 45 44 44 44 45 45 45 46 49 50 51 51 52 52 51
48 51 53 52 52 49 47 45 45 45 45 45 45 45 44 45 44 44 42 43 43 43 43 42 42 44 43 43 43 42 42 42 41 42 42 43 42 43 45 45 46 50 54
50 51 53 53 51 50 47 44 44 44 44 44 44 44 44 44 44 43 42 42 42 41 41 41 42 42 42 42 41 41 40 39 39 39 39 38 39 39 41 41 42 44 47
51 54 54 53 50 48 46 45 43 43 44 45 44 44 45 45 44 42 42 42 40 40 40 41 42 42 41 41 41 40 39 38 37 37 37 36 38 37 38 38 41 42 44
52 54 53 51 49 46 45 44 44 44 47 47 47 47 46 46 45 45 45 44 44 43 42 43 42 41 40 40 42 42 41 39 38 37 36 35 35 35 35 37 37 39 40
52 53 52 50 47 45 45 44 43 45 46 46 46 44 44 44 44 44 44 44 44 43 43 44 43 43 40 37 38 41 40 40 39 39 39 37 35 35 35 35 34 35 35
50 51 50 47 45 44 44 45 45 45 46 45 43 42 44 44 43 42 42 43 42 42 42 42 42 42 39 36 35 40 40 38 38 38 38 38 36 36 37 35 33 33 32
49 50 49 46 44 43 44 44 45 46 45 43 42 42 42 42 40 40 40 40 40 39 39 39 39 37 38 33 34 37 37 36 35 34 35 37 35 35 36 37 35 33 31
49 48 46 44 44 43 43 43 44 46 44 42 41 40 38 37 36 37 37 36 35 36 34 34 36 34 33 31 33 35 37 36 34 33 32 34 34 33 35 36 36 35 34
46 43 42 41 41 41 42 44 45 44 42 40 38 38 37 35 36 34 32 32 33 31 31 31 31 33 31 31 31 34 36 34 33 32 30 29 29 30 31 33 32 32 32
42 36 40 40 39 38 39 43 43 42 40 36 34 34 33 31 32 30 31 31 32 31 31 31 30 29 29 30 29 32 34 32 31 32 30 28 27 29 30 28 27 28 30
37 36 35 35 35 35 38 39 38 38 33 35 35 35 33 31 30 31 31 31 31 31 33 31 31 30 28 30 29 28 29 30 30 31 30 28 27 28 28 26 25 23 26
35 35 34 32 32 35 35 33 34 31 34 35 35 34 35 32 32 32 32 31 31 31 31 31 31 30 29 28 29 28 26 27 28 27 26 27 27 28 28 27 25 24 28
33 34 33 33 37 39 37 32 30 33 35 35 32 31 33 34 34 32 32 32 32 31 31 31 31 31 29 29 28 28 27 26 26 25 25 26 27 27 27 27 27 26 27
33 36 36 38 42 43 42 37 35 36 34 32 30 31 33 33 35 33 32 33 32 31 30 30 29 28 28 27 27 27 27 26 26 27 26 27 27 27 26 27 26 25 25
35 38 39 40 41 44 43 42 42 42 40 38 36 36 35 34 36 36 34 31 30 30 29 28 26 26 25 24 25 25 26 26 26 27 27 27 27 26 25 25 26 25 24
36 40 39 39 39 42 42 43 43 43 39 38 37 36 36 35 31 29 29 30 26 26 26 25 26 23 21 22 25 25 24 25 25 27 26 25 24 24 24 24 23 24 23
37 38 38 38 40 40 40 41 42 42 39 37 37 36 36 35 36 34 28 26 26 25 25 25 25 25 25 25 25 26 26 26 27 26 24 23 23 22 23 22 22 23 22

GFSMW_sfc_temp_132.txt.gz
Temp
64 64 64 63 63 61 61 60 59 58 58 58 57 58 57 59 58 59 58 60 59 57 57 56 56 57 56 56 57 56 56 57 61 59 62 63 65 65 66 67 67 64 64
64 62 62 61 59 58 58 59 58 58 57 57 58 59 58 59 59 58 57 57 57 57 55 53 53 54 54 55 55 55 54 54 56 54 55 55 59 63 65 65 64 62 62
62 60 59 57 57 56 55 56 56 57 55 55 57 57 59 59 57 57 57 57 56 56 53 53 53 52 52 51 51 52 51 49 53 55 54 52 52 57 62 64 66 64 64
60 59 57 55 56 55 57 57 57 56 55 54 52 51 51 50 52 53 53 55 55 53 52 51 51 51 51 50 50 51 50 50 48 52 57 54 55 53 53 59 62 65 65
58 55 54 55 56 55 55 56 57 55 54 53 51 49 48 48 50 49 49 49 50 50 49 48 49 48 49 48 48 48 48 49 48 49 49 51 54 55 54 52 57 61 63
55 54 55 56 55 55 54 54 54 53 52 51 50 48 46 47 47 46 45 45 46 46 46 45 46 47 46 46 46 47 47 47 48 49 49 49 48 49 50 50 52 53 59
53 53 54 54 53 52 51 52 53 50 49 48 48 46 46 46 45 43 43 42 42 43 43 44 43 44 45 45 46 46 46 46 45 45 46 48 48 51 50 49 51 52 56
52 53 53 54 53 51 48 49 50 48 47 46 46 45 45 44 44 43 43 42 41 42 43 43 43 44 44 44 44 44 44 44 43 43 42 43 46 46 48 47 46 46 49
50 50 51 52 52 50 46 46 47 47 46 45 45 44 44 43 43 43 43 42 42 43 42 42 42 43 43 43 43 42 41 42 41 40 41 40 40 42 43 44 44 44 42
50 51 53 52 51 49 46 46 45 44 45 44 44 44 44 44 43 43 41 41 41 41 41 41 42 41 41 42 42 41 41 40 39 40 39 38 38 39 40 40 42 42 42
50 51 53 53 51 49 46 44 44 44 43 44 44 43 43 44 43 42 42 41 41 42 41 42 41 40 39 40 41 40 40 38 38 38 37 36 37 37 37 38 40 41 41
52 53 54 53 50 48 47 44 44 44 44 44 45 44 45 45 44 42 42 42 42 42 42 42 41 39 37 38 38 39 40 38 37 37 36 35 37 36 36 37 36 37 38
53 53 54 51 49 47 46 44 44 45 46 47 46 44 44 43 42 42 42 42 42 42 42 41 39 37 36 36 37 40 39 38 37 37 35 34 34 33 35 35 34 35 37
52 53 53 51 48 46 45 44 43 45 46 46 44 42 42 42 41 42 41 41 41 40 40 39 37 36 34 35 36 39 38 37 37 36 37 34 32 32 34 35 34 34 34
52 53 52 49 46 45 45 45 44 45 46 43 42 40 41 41 40 39 39 39 38 38 39 38 35 34 33 34 33 37 35 34 33 33 34 33 33 34 35 34 33 32 32
52 53 52 48 45 44 44 44 45 45 45 42 40 41 39 39 37 37 36 36 35 34 34 34 33 30 33 32 34 36 35 33 30 27 28 31 30 30 34 35 34 32 30
51 51 49 47 45 44 44 43 44 45 43 40 40 38 37 35 34 35 34 32 31 31 30 30 31 28 29 31 33 35 32 30 28 25 24 27 29 29 28 30 31 31 33
50 49 46 43 42 43 43 44 45 42 40 37 37 36 35 34 32 31 30 30 30 28 27 27 27 27 29 31 31 32 30 30 28 26 24 23 24 27 27 25 25 24 27
46 40 42 38 38 39 42 43 42 40 37 34 33 32 32 30 30 26 28 29 30 28 27 27 26 24 25 31 30 27 27 26 25 25 24 24 23 30 30 22 21 21 22
39 37 35 35 35 35 40 40 39 37 33 34 32 32 31 27 24 28 26 29 30 28 30 27 26 28 23 30 30 26 23 23 23 22 22 28 27 29 29 21 20 18 20
35 35 34 32 32 35 35 33 33 30 33 35 34 33 33 31 31 29 29 28 28 28 29 28 25 24 24 24 30 29 22 22 22 21 21 22 29 29 29 28 22 21 21
33 34 32 32 34 37 35 30 28 31 33 32 31 29 31 32 32 29 30 30 29 26 26 26 24 23 22 27 27 28 27 27 21 20 21 22 29 28 28 25 27 25 20
33 33 33 33 37 38 37 33 33 33 32 30 26 28 31 32 32 30 28 29 28 27 26 24 22 20 21 21 26 27 27 26 21 23 26 28 28 27 24 27 26 21 18
33 35 37 37 37 40 40 37 37 37 35 32 32 33 32 32 32 30 28 25 24 24 24 23 20 19 19 20 21 21 21 22 22 20 20 19 24 19 17 20 21 19 18
34 37 38 39 39 42 40 40 40 41 38 36 34 32 31 28 26 26 26 24 22 24 21 20 21 17 16 20 25 24 20 21 22 18 17 16 17 17 17 17 18 18 17
35 37 38 38 39 40 40 41 42 40 37 35 33 33 32 30 27 25 23 27 26 26 26 26 23 20 24 27 27 27 28 28 28 19 17 16 16 16 16 15 15 16 16

GFSMW_sfc_temp_135.txt.gz
Temp
56 56 55 53 52 51 51 51 50 49 50 50 50 49 49 51 51 52 53 54 53 53 53 53 52 53 52 53 53 53 52 51 52 51 52 55 58 61 62 63 64 64 65
54 55 52 49 49 48 49 50 49 48 49 49 49 48 48 51 51 51 52 52 52 50 51 49 51 51 51 52 51 51 50 52 52 49 49 50 54 55 59 61 63 64 63
53 53 51 48 47 46 47 49 48 47 47 47 48 49 49 50 48 47 48 49 50 48 46 47 47 48 49 48 49 49 49 47 51 52 50 48 46 51 54 57 58 60 61
52 51 48 47 46 45 47 48 48 47 48 46 45 43 42 41 43 43 45 46 47 46 44 44 46 47 47 47 47 49 48 47 46 50 54 52 52 49 48 53 57 56 60
48 47 47 47 47 47 45 47 47 46 46 44 42 40 39 41 43 42 43 43 45 46 44 43 43 45 45 46 46 46 46 47 46 47 47 49 51 52 49 48 49 55 56
48 49 50 49 47 45 45 44 44 44 44 43 42 40 39 39 39 40 42 43 44 44 44 45 44 44 44 44 44 45 46 45 45 46 46 46 45 46 47 47 48 49 52
46 47 47 46 44 43 43 45 42 41 41 42 42 42 43 43 40 41 41 40 40 41 41 42 42 43 44 44 44 44 44 43 42 42 42 44 45 45 46 46 46 46 50
47 46 47 46 44 42 40 40 42 40 42 44 42 44 43 42 42 41 41 40 40 40 42 41 42 42 43 43 43 42 42 42 41 40 40 40 41 42 42 42 41 40 45
45 45 46 45 42 39 39 38 39 40 44 44 43 43 43 42 41 41 41 40 41 42 41 42 41 41 41 42 42 40 40 40 40 39 39 38 39 40 40 41 41 39 38
44 45 45 44 42 40 39 38 39 41 43 43 43 43 42 42 42 41 40 40 40 41 42 41 39 38 38 38 41 39 40 39 38 38 37 37 38 38 38 38 39 40 39
43 45 45 44 42 40 38 38 40 42 42 43 42 42 42 42 41 41 41 40 38 39 40 38 36 36 36 37 38 39 38 37 37 36 35 34 36 36 37 37 37 36 36
46 46 46 44 42 40 38 38 41 42 40 43 43 43 39 39 37 37 37 37 37 38 37 36 33 34 35 36 37 37 37 35 34 34 33 31 35 34 36 35 34 34 36
46 45 45 43 42 40 39 38 38 39 42 43 40 38 37 37 36 36 36 36 36 36 36 35 33 32 33 33 35 36 35 33 33 34 30 29 31 31 34 34 33 33 35
49 49 45 43 41 41 39 38 39 41 41 43 39 36 36 36 35 35 35 34 35 34 33 32 31 31 32 33 34 36 33 30 29 30 30 29 30 30 31 33 32 33 32
48 49 44 41 40 40 39 40 39 43 42 41 36 34 35 35 35 34 33 32 31 32 33 30 29 30 31 34 34 34 31 28 27 28 28 29 31 32 32 31 29 30 29
49 50 46 42 41 41 39 41 41 40 39 36 35 35 34 34 32 31 31 30 29 29 29 28 28 28 32 33 35 33 29 28 26 25 26 28 29 28 29 30 30 29 28
49 49 43 42 41 40 41 40 40 40 37 35 35 34 32 30 29 30 29 28 26 27 26 26 26 26 28 32 32 32 28 27 25 24 24 27 29 27 25 26 27 26 29
49 47 42 41 39 39 41 40 40 38 35 33 33 33 31 29 28 27 25 24 25 20 20 22 23 24 29 30 29 29 26 24 23 23 24 23 24 27 25 24 22 20 22
43 40 40 38 37 37 41 38 36 35 33 30 29 29 29 26 25 18 18 20 24 22 21 22 21 20 21 30 29 24 23 20 19 23 23 24 23 30 28 21 19 17 18
38 35 35 36 36 36 37 37 34 32 29 29 29 29 28 22 15 15 17 20 22 25 24 21 19 25 19 30 30 23 20 19 20 21 21 29 27 29 28 19 17 15 15
35 35 35 34 33 34 33 30 29 28 30 32 31 29 28 26 24 22 20 19 20 25 23 19 18 17 21 20 29 29 15 18 20 20 20 21 28 29 28 26 19 18 16
33 34 33 32 34 35 33 27 27 29 30 30 28 26 26 29 28 23 24 25 22 22 21 18 16 13 12 26 27 29 28 26 18 14 16 19 28 27 27 23 24 23 16
32 34 33 32 33 33 33 30 30 30 29 27 20 24 28 28 28 26 23 22 22 21 20 18 13 10 13 10 26 28 28 26 16 17 25 27 26 25 20 24 23 16 14
32 34 33 32 31 35 34 32 32 32 30 28 28 28 27 26 25 25 24 21 19 20 20 17 13 10 11 11 13 15 13 18 17 12 13 14 20 11 10 13 15 14 11
32 34 33 33 33 35 34 34 34 33 30 29 29 27 26 24 24 23 20 22 17 21 18 14 13 6 5 12 24 24 15 16 18 13 10 6 5 6 9 10 10 10 13
33 32 33 33 34 35 34 35 35 34 32 30 28 26 25 24 23 22 20 27 26 27 26 26 19 12 24 27 27 28 27 26 24 11 3 0 1 7 10 9 10 11 11